| time (UTC) | temp F | wind direction | speed MPH | gust MPH | rain 1hr in | rain 24hr in | rain mn in | humidity % | barometer mb |
| 20260508033602 | 80 | 69 | 3.0 | 8.0 | 0.00 | 0.00 | 0.00 | 57 | 1011.1 |
| 20260508033401 | 80 | 103 | 4.0 | 8.0 | 0.00 | 0.00 | 0.00 | 58 | 1011.2 |
| 20260508033303 | 80 | 15 | 3.0 | 8.0 | 0.00 | 0.00 | 0.00 | 59 | 1011.2 |
| 20260508033101 | 80 | 61 | 3.0 | 8.0 | 0.00 | 0.00 | 0.00 | 59 | 1011.2 |
| 20260508033006 | 80 | 72 | 2.0 | 7.0 | 0.00 | 0.00 | 0.00 | 60 | 1011.2 |
| 20260508032902 | 80 | 20 | 2.0 | 10.0 | 0.00 | 0.00 | 0.00 | 60 | 1011.3 |
| 20260508032802 | 80 | 56 | 2.0 | 10.0 | 0.00 | 0.00 | 0.00 | 60 | 1011.2 |
| 20260508032700 | 80 | 153 | 3.0 | 10.0 | 0.00 | 0.00 | 0.00 | 60 | 1011.2 |
| 20260508032600 | 80 | 105 | 3.0 | 10.0 | 0.00 | 0.00 | 0.00 | 60 | 1011.2 |
| 20260508032503 | 80 | 109 | 3.0 | 10.0 | 0.00 | 0.00 | 0.00 | 60 | 1011.3 |
| 20260508032405 | 80 | 131 | 4.0 | 10.0 | 0.00 | 0.00 | 0.00 | 59 | 1011.2 |
| 20260508032306 | 80 | 137 | 5.0 | 10.0 | 0.00 | 0.00 | 0.00 | 60 | 1011.2 |
| 20260508032201 | 80 | 108 | 4.0 | 10.0 | 0.00 | 0.00 | 0.00 | 60 | 1011.3 |
| 20260508032102 | 80 | 136 | 4.0 | 9.0 | 0.00 | 0.00 | 0.00 | 60 | 1011.2 |
| 20260508032005 | 80 | 119 | 4.0 | 9.0 | 0.00 | 0.00 | 0.00 | 60 | 1011.2 |
| 20260508031901 | 79 | 121 | 4.0 | 9.0 | 0.00 | 0.00 | 0.00 | 60 | 1011.2 |
| 20260508031801 | 79 | 96 | 6.0 | 9.0 | 0.00 | 0.00 | 0.00 | 60 | 1011.3 |
| 20260508031701 | 79 | 53 | 4.0 | 9.0 | 0.00 | 0.00 | 0.00 | 60 | 1011.3 |
| 20260508031602 | 79 | 107 | 2.0 | 7.0 | 0.00 | 0.00 | 0.00 | 61 | 1011.3 |
| 20260508031503 | 79 | 79 | 4.0 | 7.0 | 0.00 | 0.00 | 0.00 | 61 | 1011.2 |
| 20260508031359 | 79 | 113 | 3.0 | 7.0 | 0.00 | 0.00 | 0.00 | 61 | 1011.2 |
| 20260508031301 | 79 | 108 | 2.0 | 7.0 | 0.00 | 0.00 | 0.00 | 61 | 1011.2 |
| 20260508031201 | 79 | 152 | 2.0 | 7.0 | 0.00 | 0.00 | 0.00 | 61 | 1011.2 |
| 20260508031004 | 79 | 130 | 3.0 | 8.0 | 0.00 | 0.00 | 0.00 | 61 | 1011.2 |
| 20260508030904 | 79 | 121 | 3.0 | 8.0 | 0.00 | 0.00 | 0.00 | 61 | 1011.2 |
| 20260508030800 | 79 | 75 | 3.0 | 8.0 | 0.00 | 0.00 | 0.00 | 61 | 1011.2 |
| 20260508030601 | 79 | 73 | 4.0 | 10.0 | 0.00 | 0.00 | 0.00 | 62 | 1011.2 |
| 20260508030506 | 79 | 136 | 4.0 | 10.0 | 0.00 | 0.00 | 0.00 | 62 | 1011.2 |
| 20260508030405 | 78 | 74 | 5.0 | 10.0 | 0.00 | 0.00 | 0.00 | 62 | 1011.2 |
| 20260508030104 | 78 | 132 | 5.0 | 10.0 | 0.00 | 0.00 | 0.00 | 62 | 1011.2 |
| 20260508030009 | 78 | 123 | 5.0 | 10.0 | 0.00 | 0.00 | 0.00 | 62 | 1011.2 |
| 20260508025902 | 78 | 113 | 5.0 | 10.0 | 0.00 | 0.00 | 0.00 | 62 | 1011.1 |
| 20260508025803 | 78 | 55 | 5.0 | 9.0 | 0.00 | 0.00 | 0.00 | 62 | 1011.1 |
| 20260508025603 | 78 | 72 | 5.0 | 11.0 | 0.00 | 0.00 | 0.00 | 62 | 1011.1 |
| 20260508025505 | 78 | 109 | 4.0 | 11.0 | 0.00 | 0.00 | 0.00 | 62 | 1011.1 |
| 20260508025305 | 78 | 99 | 6.0 | 11.0 | 0.00 | 0.00 | 0.00 | 62 | 1011.1 |
| 20260508025204 | 78 | 103 | 6.0 | 11.0 | 0.00 | 0.00 | 0.00 | 62 | 1011.1 |
| 20260508025106 | 78 | 110 | 5.0 | 11.0 | 0.00 | 0.00 | 0.00 | 62 | 1011.2 |
| 20260508025005 | 78 | 65 | 6.0 | 11.0 | 0.00 | 0.00 | 0.00 | 62 | 1011.1 |
| 20260508024900 | 78 | 108 | 6.0 | 11.0 | 0.00 | 0.00 | 0.00 | 63 | 1011.1 |
| 20260508024602 | 77 | 75 | 5.0 | 11.0 | 0.00 | 0.00 | 0.00 | 63 | 1011.1 |
| 20260508024403 | 77 | 155 | 4.0 | 11.0 | 0.00 | 0.00 | 0.00 | 63 | 1011.0 |
| 20260508024304 | 77 | 109 | 6.0 | 11.0 | 0.00 | 0.00 | 0.00 | 63 | 1011.0 |
| 20260508024203 | 77 | 128 | 7.0 | 11.0 | 0.00 | 0.00 | 0.00 | 63 | 1011.1 |
| 20260508024006 | 77 | 111 | 7.0 | 10.0 | 0.00 | 0.00 | 0.00 | 63 | 1011.0 |
| 20260508023903 | 77 | 136 | 5.0 | 10.0 | 0.00 | 0.00 | 0.00 | 63 | 1011.0 |
| 20260508023602 | 77 | 132 | 6.0 | 9.0 | 0.00 | 0.00 | 0.00 | 63 | 1011.0 |
| 20260508023504 | 77 | 109 | 4.0 | 9.0 | 0.00 | 0.00 | 0.00 | 63 | 1011.0 |
| 20260508023304 | 77 | 157 | 2.0 | 10.0 | 0.00 | 0.00 | 0.00 | 64 | 1010.9 |
| 20260508023203 | 77 | 98 | 2.0 | 10.0 | 0.00 | 0.00 | 0.00 | 63 | 1011.0 |
| 20260508023106 | 77 | 94 | 2.0 | 10.0 | 0.00 | 0.00 | 0.00 | 63 | 1011.0 |
| 20260508023030 | 77 | 91 | 4.0 | 10.0 | 0.00 | 0.00 | 0.00 | 63 | 1010.9 |
| 20260508022820 | 77 | 73 | 6.0 | 10.0 | 0.00 | 0.00 | 0.00 | 63 | 1011.0 |
| 20260508022722 | 77 | 85 | 7.0 | 10.0 | 0.00 | 0.00 | 0.00 | 63 | 1010.9 |
| 20260508022405 | 77 | 96 | 5.0 | 9.0 | 0.00 | 0.00 | 0.00 | 63 | 1011.0 |
| 20260508022306 | 77 | 96 | 5.0 | 9.0 | 0.00 | 0.00 | 0.00 | 64 | 1011.0 |
| 20260508022204 | 77 | 76 | 6.0 | 9.0 | 0.00 | 0.00 | 0.00 | 64 | 1010.9 |
| 20260508022103 | 77 | 116 | 4.0 | 9.0 | 0.00 | 0.00 | 0.00 | 64 | 1011.0 |
| 20260508022008 | 77 | 105 | 3.0 | 8.0 | 0.00 | 0.00 | 0.00 | 64 | 1011.0 |
| 20260508021902 | 77 | 104 | 4.0 | 8.0 | 0.00 | 0.00 | 0.00 | 64 | 1010.9 |
| 20260508021803 | 76 | 115 | 4.0 | 8.0 | 0.00 | 0.00 | 0.00 | 64 | 1010.9 |
| 20260508021703 | 76 | 101 | 3.0 | 10.0 | 0.00 | 0.00 | 0.00 | 64 | 1011.0 |
| 20260508021603 | 76 | 32 | 3.0 | 10.0 | 0.00 | 0.00 | 0.00 | 64 | 1011.0 |
| 20260508021504 | 76 | 90 | 5.0 | 10.0 | 0.00 | 0.00 | 0.00 | 64 | 1011.0 |
| 20260508021402 | 76 | 59 | 5.0 | 10.0 | 0.00 | 0.00 | 0.00 | 64 | 1011.0 |
| 20260508021305 | 76 | 103 | 3.0 | 10.0 | 0.00 | 0.00 | 0.00 | 65 | 1011.0 |
| 20260508021204 | 76 | 106 | 3.0 | 10.0 | 0.00 | 0.00 | 0.00 | 64 | 1011.0 |
| 20260508021010 | 76 | 128 | 4.0 | 10.0 | 0.00 | 0.00 | 0.00 | 64 | 1011.0 |
| 20260508020904 | 76 | 123 | 5.0 | 10.0 | 0.00 | 0.00 | 0.00 | 64 | 1011.0 |
| 20260508020803 | 76 | 109 | 6.0 | 9.0 | 0.00 | 0.00 | 0.00 | 64 | 1011.1 |
| 20260508020705 | 76 | 108 | 6.0 | 9.0 | 0.00 | 0.00 | 0.00 | 64 | 1011.0 |
| 20260508020510 | 76 | 140 | 5.0 | 9.0 | 0.00 | 0.00 | 0.00 | 65 | 1011.0 |
| 20260508020403 | 76 | 132 | 5.0 | 9.0 | 0.00 | 0.00 | 0.00 | 65 | 1011.0 |
| 20260508020304 | 76 | 104 | 4.0 | 9.0 | 0.00 | 0.00 | 0.00 | 65 | 1011.0 |
| 20260508020204 | 76 | 130 | 5.0 | 9.0 | 0.00 | 0.00 | 0.00 | 65 | 1011.0 |
| 20260508020104 | 76 | 157 | 5.0 | 11.0 | 0.00 | 0.00 | 0.00 | 65 | 1011.0 |
| 20260508020009 | 76 | 117 | 4.0 | 11.0 | 0.00 | 0.00 | 0.00 | 65 | 1011.0 |
| 20260508015903 | 76 | 10 | 3.0 | 11.0 | 0.00 | 0.00 | 0.00 | 65 | 1010.9 |
| 20260508015806 | 76 | 138 | 3.0 | 11.0 | 0.00 | 0.00 | 0.00 | 65 | 1010.9 |
| 20260508015704 | 76 | 107 | 4.0 | 11.0 | 0.00 | 0.00 | 0.00 | 65 | 1010.9 |
| 20260508015604 | 76 | 76 | 5.0 | 11.0 | 0.00 | 0.00 | 0.00 | 65 | 1010.8 |
| 20260508015506 | 76 | 109 | 6.0 | 11.0 | 0.00 | 0.00 | 0.00 | 65 | 1010.9 |
| 20260508015203 | 76 | 102 | 8.0 | 11.0 | 0.00 | 0.00 | 0.00 | 65 | 1010.8 |
| 20260508015104 | 76 | 119 | 5.0 | 9.0 | 0.00 | 0.00 | 0.00 | 65 | 1010.8 |
| 20260508015008 | 76 | 105 | 3.0 | 8.0 | 0.00 | 0.00 | 0.00 | 65 | 1010.8 |
| 20260508014905 | 76 | 155 | 2.0 | 8.0 | 0.00 | 0.00 | 0.00 | 65 | 1010.8 |
| 20260508014804 | 76 | 99 | 2.0 | 8.0 | 0.00 | 0.00 | 0.00 | 65 | 1010.8 |
| 20260508014702 | 76 | 167 | 4.0 | 8.0 | 0.00 | 0.00 | 0.00 | 65 | 1010.9 |
| 20260508014605 | 76 | 146 | 4.0 | 8.0 | 0.00 | 0.00 | 0.00 | 65 | 1010.9 |
| 20260508014505 | 76 | 91 | 4.0 | 9.0 | 0.00 | 0.00 | 0.00 | 65 | 1010.8 |
| 20260508014406 | 76 | 117 | 5.0 | 9.0 | 0.00 | 0.00 | 0.00 | 65 | 1010.9 |
| 20260508014304 | 76 | 121 | 5.0 | 9.0 | 0.00 | 0.00 | 0.00 | 65 | 1010.7 |
| 20260508014205 | 76 | 122 | 4.0 | 9.0 | 0.00 | 0.00 | 0.00 | 65 | 1010.7 |
| 20260508014105 | 76 | 113 | 3.0 | 9.0 | 0.00 | 0.00 | 0.00 | 65 | 1010.7 |
| 20260508014006 | 76 | 87 | 4.0 | 9.0 | 0.00 | 0.00 | 0.00 | 65 | 1010.6 |
| 20260508013803 | 76 | 122 | 5.0 | 9.0 | 0.00 | 0.00 | 0.00 | 65 | 1010.6 |
| 20260508013604 | 76 | 152 | 4.0 | 8.0 | 0.00 | 0.00 | 0.00 | 65 | 1010.5 |
| 20260508013404 | 76 | 123 | 4.0 | 10.0 | 0.00 | 0.00 | 0.00 | 65 | 1010.4 |
| 20260508013303 | 76 | 120 | 3.0 | 10.0 | 0.00 | 0.00 | 0.00 | 65 | 1010.4 |
| 20260508013204 | 76 | 128 | 4.0 | 10.0 | 0.00 | 0.00 | 0.00 | 65 | 1010.5 |
| 20260508013102 | 76 | 111 | 5.0 | 10.0 | 0.00 | 0.00 | 0.00 | 65 | 1010.5 |
| 20260508013005 | 76 | 64 | 4.0 | 10.0 | 0.00 | 0.00 | 0.00 | 65 | 1010.5 |
| 20260508012904 | 76 | 123 | 3.0 | 10.0 | 0.00 | 0.00 | 0.00 | 65 | 1010.5 |
| 20260508012804 | 76 | 109 | 5.0 | 10.0 | 0.00 | 0.00 | 0.00 | 65 | 1010.5 |
| 20260508012602 | 76 | 112 | 6.0 | 10.0 | 0.00 | 0.00 | 0.00 | 65 | 1010.4 |
| 20260508012403 | 76 | 107 | 5.0 | 10.0 | 0.00 | 0.00 | 0.00 | 65 | 1010.4 |
| 20260508012307 | 76 | 103 | 3.0 | 10.0 | 0.00 | 0.00 | 0.00 | 65 | 1010.4 |
| 20260508012007 | 76 | 118 | 4.0 | 10.0 | 0.00 | 0.00 | 0.00 | 65 | 1010.4 |
| 20260508011905 | 76 | 97 | 4.0 | 10.0 | 0.00 | 0.00 | 0.00 | 65 | 1010.4 |
| 20260508011803 | 76 | 156 | 6.0 | 10.0 | 0.00 | 0.00 | 0.00 | 65 | 1010.4 |
| 20260508011704 | 76 | 89 | 6.0 | 10.0 | 0.00 | 0.00 | 0.00 | 65 | 1010.3 |
| 20260508011604 | 76 | 99 | 5.0 | 10.0 | 0.00 | 0.00 | 0.00 | 65 | 1010.4 |
| 20260508011400 | 76 | 104 | 7.0 | 10.0 | 0.00 | 0.00 | 0.00 | 65 | 1010.3 |
| 20260508011304 | 76 | 103 | 5.0 | 10.0 | 0.00 | 0.00 | 0.00 | 66 | 1010.3 |
| 20260508011204 | 76 | 114 | 4.0 | 9.0 | 0.00 | 0.00 | 0.00 | 66 | 1010.3 |
| 20260508011103 | 76 | 114 | 4.0 | 9.0 | 0.00 | 0.00 | 0.00 | 66 | 1010.3 |
| 20260508011005 | 76 | 100 | 4.0 | 9.0 | 0.00 | 0.00 | 0.00 | 66 | 1010.4 |
| 20260508010903 | 76 | 113 | 3.0 | 9.0 | 0.00 | 0.00 | 0.00 | 66 | 1010.4 |
| 20260508010804 | 76 | 86 | 2.0 | 9.0 | 0.00 | 0.00 | 0.00 | 66 | 1010.3 |
| 20260508010604 | 76 | 113 | 5.0 | 9.0 | 0.00 | 0.00 | 0.00 | 66 | 1010.3 |
| 20260508010506 | 76 | 119 | 5.0 | 9.0 | 0.00 | 0.00 | 0.00 | 66 | 1010.4 |
| 20260508010405 | 75 | 137 | 4.0 | 9.0 | 0.00 | 0.00 | 0.00 | 66 | 1010.3 |
| 20260508010303 | 75 | 88 | 5.0 | 9.0 | 0.00 | 0.00 | 0.00 | 66 | 1010.3 |
| 20260508010203 | 75 | 110 | 6.0 | 9.0 | 0.00 | 0.00 | 0.00 | 66 | 1010.3 |
| 20260508010104 | 75 | 104 | 4.0 | 9.0 | 0.00 | 0.00 | 0.00 | 67 | 1010.2 |
| 20260508010007 | 75 | 127 | 3.0 | 10.0 | 0.00 | 0.00 | 0.00 | 67 | 1010.3 |
| 20260508005902 | 75 | 107 | 2.0 | 10.0 | 0.00 | 0.00 | 0.00 | 67 | 1010.3 |
| 20260508005801 | 75 | 109 | 3.0 | 10.0 | 0.00 | 0.00 | 0.00 | 67 | 1010.2 |
| 20260508005701 | 75 | 143 | 4.0 | 10.0 | 0.00 | 0.00 | 0.00 | 67 | 1010.2 |
| 20260508005604 | 75 | 107 | 3.0 | 10.0 | 0.00 | 0.00 | 0.00 | 67 | 1010.2 |
| 20260508005504 | 75 | 111 | 3.0 | 10.0 | 0.00 | 0.00 | 0.00 | 67 | 1010.2 |
| 20260508005410 | 75 | 76 | 5.0 | 10.0 | 0.00 | 0.00 | 0.00 | 67 | 1010.2 |
| 20260508005222 | 75 | 117 | 5.0 | 10.0 | 0.00 | 0.00 | 0.00 | 67 | 1010.1 |
| 20260508004204 | 75 | 92 | 3.0 | 9.0 | 0.00 | 0.00 | 0.00 | 68 | 1010.2 |
| 20260508004005 | 75 | 106 | 4.0 | 9.0 | 0.00 | 0.00 | 0.00 | 68 | 1010.1 |
| 20260508003906 | 75 | 94 | 3.0 | 9.0 | 0.00 | 0.00 | 0.00 | 68 | 1010.1 |
| 20260508003405 | 75 | 134 | 4.0 | 9.0 | 0.00 | 0.00 | 0.00 | 68 | 1010.0 |
| 20260508003102 | 75 | 86 | 4.0 | 8.0 | 0.00 | 0.00 | 0.00 | 68 | 1010.1 |
| 20260508003006 | 75 | 83 | 4.0 | 8.0 | 0.00 | 0.00 | 0.00 | 68 | 1010.1 |
| 20260508002901 | 75 | 82 | 4.0 | 8.0 | 0.00 | 0.00 | 0.00 | 68 | 1010.1 |
| 20260508002800 | 75 | 80 | 4.0 | 8.0 | 0.00 | 0.00 | 0.00 | 68 | 1010.0 |
| 20260508002702 | 75 | 83 | 3.0 | 8.0 | 0.00 | 0.00 | 0.00 | 68 | 1010.1 |
| 20260508002604 | 75 | 84 | 2.0 | 7.0 | 0.00 | 0.00 | 0.00 | 68 | 1010.1 |
| 20260508002503 | 75 | 81 | 2.0 | 7.0 | 0.00 | 0.00 | 0.00 | 68 | 1010.1 |
| 20260508002402 | 75 | 98 | 3.0 | 7.0 | 0.00 | 0.00 | 0.00 | 68 | 1010.1 |
| 20260508002306 | 75 | 139 | 3.0 | 7.0 | 0.00 | 0.00 | 0.00 | 68 | 1010.1 |
| 20260508002201 | 75 | 133 | 3.0 | 7.0 | 0.00 | 0.00 | 0.00 | 68 | 1010.1 |
| 20260508002101 | 75 | 141 | 2.0 | 4.0 | 0.00 | 0.00 | 0.00 | 68 | 1010.1 |
| 20260508002006 | 75 | 80 | 2.0 | 4.0 | 0.00 | 0.00 | 0.00 | 68 | 1010.0 |
| 20260508001802 | 75 | 53 | 1.0 | 4.0 | 0.00 | 0.00 | 0.00 | 67 | 1010.0 |
| 20260508001702 | 76 | 32 | 2.0 | 4.0 | 0.00 | 0.00 | 0.00 | 67 | 1010.0 |
| 20260508001503 | 75 | 76 | 2.0 | 4.0 | 0.00 | 0.00 | 0.00 | 67 | 1010.0 |
| 20260508001402 | 76 | 88 | 1.0 | 4.0 | 0.00 | 0.00 | 0.00 | 67 | 1010.0 |
| 20260508001202 | 76 | 135 | 1.0 | 4.0 | 0.00 | 0.00 | 0.00 | 67 | 1009.9 |
| 20260508001102 | 76 | 112 | 2.0 | 4.0 | 0.00 | 0.00 | 0.00 | 67 | 1010.0 |
| 20260508001004 | 76 | 89 | 1.0 | 4.0 | 0.00 | 0.00 | 0.00 | 67 | 1010.0 |
| 20260508000906 | 76 | 116 | 1.0 | 4.0 | 0.00 | 0.00 | 0.00 | 67 | 1010.0 |
| 20260508000802 | 76 | 68 | 2.0 | 4.0 | 0.00 | 0.00 | 0.00 | 67 | 1009.9 |
| 20260508000700 | 76 | 110 | 2.0 | 4.0 | 0.00 | 0.00 | 0.00 | 67 | 1009.9 |
| 20260508000601 | 76 | 122 | 2.0 | 4.0 | 0.00 | 0.00 | 0.00 | 67 | 1009.9 |
| 20260508000505 | 76 | 65 | 2.0 | 6.0 | 0.00 | 0.00 | 0.00 | 67 | 1009.9 |
| 20260508000305 | 76 | 90 | 2.0 | 6.0 | 0.00 | 0.00 | 0.00 | 67 | 1009.9 |
| 20260508000201 | 76 | 58 | 2.0 | 6.0 | 0.00 | 0.00 | 0.00 | 67 | 1009.8 |
| 20260508000004 | 76 | 93 | 2.0 | 6.0 | 0.00 | 0.00 | 0.00 | 67 | 1009.7 |
| 20260507235900 | 76 | 22 | 2.0 | 6.0 | 0.00 | 0.00 | 0.00 | 67 | 1009.7 |
| 20260507235758 | 76 | 135 | 2.0 | 6.0 | 0.00 | 0.00 | 0.00 | 67 | 1009.7 |
| 20260507235702 | 76 | 84 | 3.0 | 6.0 | 0.00 | 0.00 | 0.00 | 67 | 1009.8 |
| 20260507235601 | 76 | 107 | 3.0 | 6.0 | 0.00 | 0.00 | 0.00 | 67 | 1009.7 |
| 20260507235503 | 76 | 89 | 4.0 | 6.0 | 0.00 | 0.00 | 0.00 | 67 | 1009.6 |
| 20260507235403 | 76 | 98 | 3.0 | 6.0 | 0.00 | 0.00 | 0.00 | 67 | 1009.7 |
| 20260507235300 | 76 | 91 | 2.0 | 6.0 | 0.00 | 0.00 | 0.00 | 66 | 1009.7 |
| 20260507235201 | 76 | 72 | 2.0 | 6.0 | 0.00 | 0.00 | 0.00 | 66 | 1009.7 |
| 20260507235101 | 76 | 94 | 2.0 | 6.0 | 0.00 | 0.00 | 0.00 | 66 | 1009.6 |
| 20260507235005 | 76 | 94 | 2.0 | 6.0 | 0.00 | 0.00 | 0.00 | 66 | 1009.8 |
| 20260507234903 | 76 | 72 | 2.0 | 6.0 | 0.00 | 0.00 | 0.00 | 66 | 1009.7 |
| 20260507234800 | 76 | 84 | 2.0 | 6.0 | 0.00 | 0.00 | 0.00 | 66 | 1009.7 |
| 20260507234702 | 76 | 113 | 2.0 | 6.0 | 0.00 | 0.00 | 0.00 | 66 | 1009.7 |
| 20260507234603 | 76 | 76 | 2.0 | 6.0 | 0.00 | 0.00 | 0.00 | 66 | 1009.6 |
| 20260507234503 | 76 | 103 | 2.0 | 6.0 | 0.00 | 0.00 | 0.00 | 66 | 1009.6 |
| 20260507234301 | 76 | 91 | 2.0 | 6.0 | 0.00 | 0.00 | 0.00 | 66 | 1009.6 |
| 20260507234201 | 76 | 78 | 1.0 | 4.0 | 0.00 | 0.00 | 0.00 | 66 | 1009.7 |
| 20260507234100 | 76 | 48 | 1.0 | 4.0 | 0.00 | 0.00 | 0.00 | 66 | 1009.6 |
| 20260507234006 | 76 | 64 | 1.0 | 4.0 | 0.00 | 0.00 | 0.00 | 66 | 1009.7 |
| 20260507233901 | 76 | 99 | 1.0 | 6.0 | 0.00 | 0.00 | 0.00 | 66 | 1009.7 |
| 20260507233802 | 76 | 88 | 1.0 | 6.0 | 0.00 | 0.00 | 0.00 | 66 | 1009.7 |
| 20260507233702 | 76 | 123 | 1.0 | 6.0 | 0.00 | 0.00 | 0.00 | 66 | 1009.6 |
| 20260507233503 | 76 | 136 | 1.0 | 6.0 | 0.00 | 0.00 | 0.00 | 66 | 1009.7 |
| 20260507233402 | 76 | 130 | 1.0 | 6.0 | 0.00 | 0.00 | 0.00 | 66 | 1009.6 |
| 20260507233302 | 76 | 119 | 2.0 | 6.0 | 0.00 | 0.00 | 0.00 | 66 | 1009.6 |
| 20260507233101 | 76 | 96 | 3.0 | 6.0 | 0.00 | 0.00 | 0.00 | 66 | 1009.6 |
| 20260507233007 | 76 | 103 | 2.0 | 7.0 | 0.00 | 0.00 | 0.00 | 66 | 1009.6 |
| 20260507232904 | 76 | 71 | 2.0 | 7.0 | 0.00 | 0.00 | 0.00 | 66 | 1009.6 |
| 20260507232802 | 76 | 86 | 3.0 | 7.0 | 0.00 | 0.00 | 0.00 | 66 | 1009.6 |
| 20260507232700 | 76 | 133 | 3.0 | 7.0 | 0.00 | 0.00 | 0.00 | 66 | 1009.6 |
| 20260507232601 | 76 | 128 | 2.0 | 7.0 | 0.00 | 0.00 | 0.00 | 66 | 1009.6 |
| 20260507232500 | 76 | 112 | 3.0 | 7.0 | 0.00 | 0.00 | 0.00 | 66 | 1009.6 |
| 20260507232401 | 76 | 115 | 4.0 | 7.0 | 0.00 | 0.00 | 0.00 | 66 | 1009.6 |
| 20260507232306 | 76 | 100 | 3.0 | 7.0 | 0.00 | 0.00 | 0.00 | 66 | 1009.6 |
| 20260507232202 | 76 | 98 | 2.0 | 7.0 | 0.00 | 0.00 | 0.00 | 66 | 1009.7 |
| 20260507231902 | 76 | 98 | 3.0 | 6.0 | 0.00 | 0.00 | 0.00 | 66 | 1009.6 |
| 20260507231800 | 76 | 107 | 2.0 | 6.0 | 0.00 | 0.00 | 0.00 | 66 | 1009.6 |
| 20260507231701 | 76 | 80 | 1.0 | 5.0 | 0.00 | 0.00 | 0.00 | 66 | 1009.6 |
| 20260507231600 | 76 | 59 | 2.0 | 5.0 | 0.00 | 0.00 | 0.00 | 66 | 1009.5 |
| 20260507231505 | 76 | 59 | 3.0 | 5.0 | 0.00 | 0.00 | 0.00 | 66 | 1009.6 |
| 20260507231401 | 76 | 69 | 2.0 | 5.0 | 0.00 | 0.00 | 0.00 | 65 | 1009.6 |
| 20260507231303 | 76 | 70 | 1.0 | 5.0 | 0.00 | 0.00 | 0.00 | 65 | 1009.6 |
| 20260507231100 | 76 | 117 | 2.0 | 5.0 | 0.00 | 0.00 | 0.00 | 65 | 1009.5 |
| 20260507231004 | 76 | 55 | 2.0 | 6.0 | 0.00 | 0.00 | 0.00 | 65 | 1009.5 |
| 20260507230901 | 76 | 101 | 2.0 | 6.0 | 0.00 | 0.00 | 0.00 | 65 | 1009.4 |
| 20260507230801 | 76 | 120 | 2.0 | 6.0 | 0.00 | 0.00 | 0.00 | 65 | 1009.5 |
| 20260507230703 | 76 | 115 | 2.0 | 6.0 | 0.00 | 0.00 | 0.00 | 65 | 1009.4 |
| 20260507230606 | 76 | 77 | 3.0 | 6.0 | 0.00 | 0.00 | 0.00 | 65 | 1009.4 |
| 20260507225410 | 77 | 99 | 3.0 | 7.0 | 0.00 | 0.00 | 0.00 | 65 | 1009.5 |
| 20260507225306 | 77 | 101 | 4.0 | 7.0 | 0.00 | 0.00 | 0.00 | 65 | 1009.4 |
| 20260507224204 | 77 | 82 | 4.0 | 8.0 | 0.00 | 0.00 | 0.00 | 65 | 1009.3 |
| 20260507224101 | 77 | 78 | 3.0 | 8.0 | 0.00 | 0.00 | 0.00 | 65 | 1009.2 |
| 20260507224006 | 77 | 95 | 3.0 | 8.0 | 0.00 | 0.00 | 0.00 | 65 | 1009.2 |
| 20260507223903 | 77 | 100 | 2.0 | 8.0 | 0.00 | 0.00 | 0.00 | 65 | 1009.3 |
| 20260507223802 | 77 | 93 | 2.0 | 8.0 | 0.00 | 0.00 | 0.00 | 65 | 1009.3 |
| 20260507223701 | 77 | 115 | 3.0 | 8.0 | 0.00 | 0.00 | 0.00 | 65 | 1009.3 |
| 20260507223602 | 77 | 93 | 4.0 | 8.0 | 0.00 | 0.00 | 0.00 | 65 | 1009.3 |
| 20260507223505 | 77 | 116 | 4.0 | 8.0 | 0.00 | 0.00 | 0.00 | 65 | 1009.2 |
| 20260507223401 | 77 | 99 | 3.0 | 8.0 | 0.00 | 0.00 | 0.00 | 65 | 1009.2 |
| 20260507223102 | 77 | 88 | 3.0 | 7.0 | 0.00 | 0.00 | 0.00 | 65 | 1009.2 |
| 20260507223005 | 77 | 96 | 3.0 | 6.0 | 0.00 | 0.00 | 0.00 | 65 | 1009.2 |
| 20260507222903 | 77 | 73 | 3.0 | 6.0 | 0.00 | 0.00 | 0.00 | 65 | 1009.2 |
| 20260507222802 | 77 | 105 | 3.0 | 6.0 | 0.00 | 0.00 | 0.00 | 65 | 1009.2 |
| 20260507222703 | 77 | 72 | 3.0 | 6.0 | 0.00 | 0.00 | 0.00 | 65 | 1009.2 |
| 20260507222603 | 77 | 85 | 2.0 | 6.0 | 0.00 | 0.00 | 0.00 | 65 | 1009.2 |
| 20260507222504 | 77 | 96 | 1.0 | 6.0 | 0.00 | 0.00 | 0.00 | 65 | 1009.2 |
| 20260507222401 | 77 | 69 | 2.0 | 6.0 | 0.00 | 0.00 | 0.00 | 65 | 1009.2 |
| 20260507222202 | 77 | 69 | 2.0 | 6.0 | 0.00 | 0.00 | 0.00 | 65 | 1009.2 |
| 20260507222100 | 77 | 123 | 2.0 | 6.0 | 0.00 | 0.00 | 0.00 | 65 | 1009.2 |
| 20260507222007 | 77 | 111 | 2.0 | 6.0 | 0.00 | 0.00 | 0.00 | 65 | 1009.2 |
| 20260507221902 | 77 | 91 | 3.0 | 6.0 | 0.00 | 0.00 | 0.00 | 65 | 1009.2 |
| 20260507221801 | 77 | 68 | 3.0 | 6.0 | 0.00 | 0.00 | 0.00 | 65 | 1009.2 |
| 20260507221703 | 77 | 105 | 3.0 | 5.0 | 0.00 | 0.00 | 0.00 | 65 | 1009.3 |
| 20260507221503 | 77 | 105 | 3.0 | 5.0 | 0.00 | 0.00 | 0.00 | 65 | 1009.2 |
| 20260507221404 | 77 | 90 | 1.0 | 5.0 | 0.00 | 0.00 | 0.00 | 65 | 1009.2 |
| 20260507221301 | 77 | 107 | 1.0 | 5.0 | 0.00 | 0.00 | 0.00 | 65 | 1009.2 |
| 20260507221102 | 77 | 110 | 2.0 | 5.0 | 0.00 | 0.00 | 0.00 | 65 | 1009.2 |
| 20260507221007 | 77 | 132 | 2.0 | 6.0 | 0.00 | 0.00 | 0.00 | 65 | 1009.2 |
| 20260507220901 | 77 | 74 | 1.0 | 6.0 | 0.00 | 0.00 | 0.00 | 65 | 1009.2 |
| 20260507220803 | 77 | 112 | 1.0 | 6.0 | 0.00 | 0.00 | 0.00 | 65 | 1009.2 |
| 20260507220702 | 77 | 119 | 2.0 | 6.0 | 0.00 | 0.00 | 0.00 | 65 | 1009.2 |
| 20260507220602 | 77 | 103 | 2.0 | 6.0 | 0.00 | 0.00 | 0.00 | 65 | 1009.2 |
| 20260507220504 | 77 | 67 | 1.0 | 6.0 | 0.00 | 0.00 | 0.00 | 65 | 1009.2 |
| 20260507220302 | 77 | 101 | 2.0 | 6.0 | 0.00 | 0.00 | 0.00 | 65 | 1009.2 |
| 20260507220201 | 77 | 86 | 2.0 | 6.0 | 0.00 | 0.00 | 0.00 | 65 | 1009.1 |
| 20260507220101 | 77 | 32 | 2.0 | 8.0 | 0.00 | 0.00 | 0.00 | 65 | 1009.1 |
| 20260507220011 | 77 | 25 | 1.0 | 8.0 | 0.00 | 0.00 | 0.00 | 65 | 1009.1 |
| 20260507215801 | 78 | 108 | 2.0 | 8.0 | 0.00 | 0.00 | 0.00 | 65 | 1009.1 |
| 20260507215601 | 78 | 74 | 1.0 | 8.0 | 0.00 | 0.00 | 0.00 | 65 | 1009.1 |
| 20260507215504 | 78 | 54 | 1.0 | 8.0 | 0.00 | 0.00 | 0.00 | 65 | 1009.1 |
| 20260507215301 | 78 | 69 | 4.0 | 8.0 | 0.00 | 0.00 | 0.00 | 64 | 1009.1 |
| 20260507215202 | 78 | 98 | 3.0 | 8.0 | 0.00 | 0.00 | 0.00 | 65 | 1009.1 |
| 20260507215102 | 78 | 86 | 3.0 | 6.0 | 0.00 | 0.00 | 0.00 | 65 | 1009.0 |
| 20260507215003 | 78 | 81 | 3.0 | 6.0 | 0.00 | 0.00 | 0.00 | 64 | 1009.0 |
| 20260507214902 | 78 | 105 | 3.0 | 7.0 | 0.00 | 0.00 | 0.00 | 64 | 1009.0 |
| 20260507214702 | 78 | 96 | 3.0 | 7.0 | 0.00 | 0.00 | 0.00 | 64 | 1009.0 |
| 20260507214503 | 78 | 80 | 4.0 | 7.0 | 0.00 | 0.00 | 0.00 | 64 | 1009.1 |
| 20260507214402 | 78 | 65 | 3.0 | 7.0 | 0.00 | 0.00 | 0.00 | 64 | 1009.1 |
| 20260507214203 | 78 | 36 | 4.0 | 7.0 | 0.00 | 0.00 | 0.00 | 64 | 1009.0 |
| 20260507214102 | 78 | 118 | 3.0 | 7.0 | 0.00 | 0.00 | 0.00 | 64 | 1009.0 |
| 20260507214005 | 78 | 94 | 3.0 | 7.0 | 0.00 | 0.00 | 0.00 | 64 | 1009.1 |
| 20260507213901 | 78 | 101 | 3.0 | 7.0 | 0.00 | 0.00 | 0.00 | 64 | 1009.0 |
| 20260507213801 | 78 | 125 | 2.0 | 7.0 | 0.00 | 0.00 | 0.00 | 64 | 1009.1 |
| 20260507213701 | 78 | 113 | 2.0 | 7.0 | 0.00 | 0.00 | 0.00 | 64 | 1009.1 |
| 20260507213601 | 78 | 105 | 2.0 | 7.0 | 0.00 | 0.00 | 0.00 | 64 | 1009.1 |
| 20260507213504 | 78 | 39 | 3.0 | 7.0 | 0.00 | 0.00 | 0.00 | 64 | 1009.1 |
| 20260507213402 | 78 | 71 | 4.0 | 7.0 | 0.00 | 0.00 | 0.00 | 64 | 1009.1 |
| 20260507213302 | 78 | 113 | 3.0 | 7.0 | 0.00 | 0.00 | 0.00 | 64 | 1009.1 |
| 20260507213204 | 78 | 89 | 3.0 | 7.0 | 0.00 | 0.00 | 0.00 | 64 | 1009.1 |
| 20260507213102 | 78 | 137 | 3.0 | 7.0 | 0.00 | 0.00 | 0.00 | 64 | 1009.1 |
| 20260507213004 | 78 | 100 | 2.0 | 6.0 | 0.00 | 0.00 | 0.00 | 64 | 1009.2 |
| 20260507212905 | 78 | 75 | 2.0 | 6.0 | 0.00 | 0.00 | 0.00 | 64 | 1009.1 |
| 20260507212800 | 78 | 98 | 2.0 | 6.0 | 0.00 | 0.00 | 0.00 | 64 | 1009.1 |
| 20260507212600 | 78 | 97 | 2.0 | 7.0 | 0.00 | 0.00 | 0.00 | 64 | 1009.2 |
| 20260507212401 | 78 | 73 | 2.0 | 7.0 | 0.00 | 0.00 | 0.00 | 64 | 1009.2 |
| 20260507212200 | 78 | 103 | 3.0 | 8.0 | 0.00 | 0.00 | 0.00 | 63 | 1009.2 |
| 20260507212101 | 78 | 111 | 4.0 | 8.0 | 0.00 | 0.00 | 0.00 | 63 | 1009.2 |
| 20260507212005 | 78 | 101 | 3.0 | 8.0 | 0.00 | 0.00 | 0.00 | 63 | 1009.2 |
| 20260507211901 | 78 | 142 | 2.0 | 8.0 | 0.00 | 0.00 | 0.00 | 63 | 1009.2 |
| 20260507211402 | 79 | 94 | 3.0 | 8.0 | 0.00 | 0.00 | 0.00 | 63 | 1009.2 |
| 20260507211302 | 79 | 100 | 2.0 | 7.0 | 0.00 | 0.00 | 0.00 | 63 | 1009.2 |
| 20260507211101 | 79 | 96 | 3.0 | 7.0 | 0.00 | 0.00 | 0.00 | 63 | 1009.2 |
| 20260507211008 | 79 | 105 | 3.0 | 5.0 | 0.00 | 0.00 | 0.00 | 63 | 1009.2 |
| 20260507210912 | 79 | 101 | 3.0 | 8.0 | 0.00 | 0.00 | 0.00 | 63 | 1009.2 |
| 20260507210800 | 79 | 65 | 3.0 | 8.0 | 0.00 | 0.00 | 0.00 | 63 | 1009.2 |
| 20260507210701 | 79 | 115 | 3.0 | 8.0 | 0.00 | 0.00 | 0.00 | 63 | 1009.2 |
| 20260507210602 | 79 | 111 | 4.0 | 8.0 | 0.00 | 0.00 | 0.00 | 63 | 1009.2 |
| 20260507210404 | 79 | 117 | 3.0 | 11.0 | 0.00 | 0.00 | 0.00 | 63 | 1009.1 |
| 20260507210305 | 79 | 107 | 3.0 | 11.0 | 0.00 | 0.00 | 0.00 | 63 | 1009.1 |
| 20260507210202 | 79 | 126 | 3.0 | 11.0 | 0.00 | 0.00 | 0.00 | 63 | 1009.1 |
| 20260507210009 | 79 | 124 | 4.0 | 11.0 | 0.00 | 0.00 | 0.00 | 63 | 1009.0 |
| 20260507205903 | 79 | 124 | 4.0 | 11.0 | 0.00 | 0.00 | 0.00 | 63 | 1009.1 |
| 20260507205805 | 79 | 140 | 4.0 | 11.0 | 0.00 | 0.00 | 0.00 | 63 | 1009.2 |
| 20260507205602 | 78 | 98 | 7.0 | 11.0 | 0.00 | 0.00 | 0.00 | 63 | 1009.1 |
| 20260507205306 | 78 | 113 | 4.0 | 10.0 | 0.00 | 0.00 | 0.00 | 63 | 1009.1 |
| 20260507205203 | 78 | 115 | 2.0 | 10.0 | 0.00 | 0.00 | 0.00 | 63 | 1009.1 |
| 20260507205102 | 78 | 98 | 2.0 | 10.0 | 0.00 | 0.00 | 0.00 | 63 | 1009.0 |
| 20260507205006 | 78 | 147 | 3.0 | 10.0 | 0.00 | 0.00 | 0.00 | 63 | 1009.0 |
| 20260507204902 | 78 | 130 | 3.0 | 10.0 | 0.00 | 0.00 | 0.00 | 63 | 1009.0 |
| 20260507204803 | 78 | 128 | 3.0 | 10.0 | 0.00 | 0.00 | 0.00 | 63 | 1009.0 |
| 20260507204701 | 78 | 142 | 5.0 | 10.0 | 0.00 | 0.00 | 0.00 | 63 | 1009.0 |
| 20260507204602 | 78 | 132 | 6.0 | 10.0 | 0.00 | 0.00 | 0.00 | 63 | 1009.1 |
| 20260507204503 | 78 | 114 | 4.0 | 8.0 | 0.00 | 0.00 | 0.00 | 64 | 1009.0 |
| 20260507204402 | 78 | 115 | 4.0 | 7.0 | 0.00 | 0.00 | 0.00 | 64 | 1009.1 |
| 20260507204302 | 78 | 108 | 3.0 | 7.0 | 0.00 | 0.00 | 0.00 | 64 | 1009.1 |
| 20260507204201 | 78 | 79 | 3.0 | 7.0 | 0.00 | 0.00 | 0.00 | 64 | 1009.1 |
| 20260507204102 | 78 | 109 | 3.0 | 8.0 | 0.00 | 0.00 | 0.00 | 64 | 1009.0 |
| 20260507204004 | 78 | 68 | 4.0 | 8.0 | 0.00 | 0.00 | 0.00 | 64 | 1009.0 |
| 20260507203801 | 78 | 81 | 4.0 | 9.0 | 0.00 | 0.00 | 0.00 | 64 | 1009.0 |
| 20260507203703 | 78 | 115 | 4.0 | 9.0 | 0.00 | 0.00 | 0.00 | 64 | 1009.0 |
| 20260507203601 | 78 | 105 | 2.0 | 9.0 | 0.00 | 0.00 | 0.00 | 64 | 1009.1 |
| 20260507203503 | 78 | 91 | 3.0 | 9.0 | 0.00 | 0.00 | 0.00 | 64 | 1009.0 |
| 20260507203301 | 78 | 122 | 3.0 | 9.0 | 0.00 | 0.00 | 0.00 | 64 | 1009.0 |
| 20260507203203 | 78 | 112 | 5.0 | 9.0 | 0.00 | 0.00 | 0.00 | 64 | 1009.0 |
| 20260507203101 | 78 | 99 | 5.0 | 9.0 | 0.00 | 0.00 | 0.00 | 64 | 1009.0 |
| 20260507203006 | 78 | 119 | 4.0 | 9.0 | 0.00 | 0.00 | 0.00 | 64 | 1009.0 |
| 20260507202802 | 78 | 108 | 4.0 | 9.0 | 0.00 | 0.00 | 0.00 | 64 | 1009.0 |
| 20260507202659 | 78 | 90 | 5.0 | 9.0 | 0.00 | 0.00 | 0.00 | 64 | 1009.1 |
| 20260507202601 | 78 | 101 | 4.0 | 8.0 | 0.00 | 0.00 | 0.00 | 64 | 1009.1 |
| 20260507202506 | 78 | 115 | 3.0 | 8.0 | 0.00 | 0.00 | 0.00 | 64 | 1009.1 |
| 20260507202401 | 78 | 86 | 4.0 | 8.0 | 0.00 | 0.00 | 0.00 | 64 | 1009.0 |
| 20260507202306 | 78 | 88 | 4.0 | 8.0 | 0.00 | 0.00 | 0.00 | 64 | 1009.0 |
| 20260507202200 | 78 | 88 | 4.0 | 8.0 | 0.00 | 0.00 | 0.00 | 64 | 1008.9 |
| 20260507202101 | 78 | 112 | 3.0 | 8.0 | 0.00 | 0.00 | 0.00 | 64 | 1009.0 |
| 20260507202005 | 78 | 108 | 3.0 | 8.0 | 0.00 | 0.00 | 0.00 | 64 | 1009.0 |
| 20260507201903 | 78 | 114 | 4.0 | 8.0 | 0.00 | 0.00 | 0.00 | 64 | 1009.0 |
| 20260507201801 | 78 | 125 | 4.0 | 8.0 | 0.00 | 0.00 | 0.00 | 64 | 1009.0 |
| 20260507201702 | 78 | 96 | 4.0 | 8.0 | 0.00 | 0.00 | 0.00 | 64 | 1009.0 |
| 20260507201603 | 79 | 109 | 4.0 | 8.0 | 0.00 | 0.00 | 0.00 | 64 | 1008.9 |
| 20260507201500 | 79 | 94 | 3.0 | 8.0 | 0.00 | 0.00 | 0.00 | 64 | 1008.9 |
| 20260507200902 | 79 | 109 | 4.0 | 8.0 | 0.00 | 0.00 | 0.00 | 63 | 1008.9 |
| 20260507200703 | 79 | 132 | 4.0 | 7.0 | 0.00 | 0.00 | 0.00 | 63 | 1008.9 |
| 20260507200601 | 79 | 62 | 3.0 | 6.0 | 0.00 | 0.00 | 0.00 | 63 | 1008.9 |
| 20260507200507 | 79 | 126 | 3.0 | 6.0 | 0.00 | 0.00 | 0.00 | 63 | 1008.9 |
| 20260507200402 | 79 | 74 | 2.0 | 6.0 | 0.00 | 0.00 | 0.00 | 62 | 1008.9 |
| 20260507200303 | 79 | 82 | 2.0 | 6.0 | 0.00 | 0.00 | 0.00 | 63 | 1008.9 |
| 20260507200203 | 79 | 107 | 2.0 | 6.0 | 0.00 | 0.00 | 0.00 | 62 | 1008.9 |
| 20260507200103 | 80 | 84 | 3.0 | 8.0 | 0.00 | 0.00 | 0.00 | 62 | 1008.9 |
| 20260507200008 | 80 | 355 | 3.0 | 8.0 | 0.00 | 0.00 | 0.00 | 62 | 1008.9 |
| 20260507195906 | 80 | 116 | 4.0 | 9.0 | 0.00 | 0.00 | 0.00 | 62 | 1008.8 |
| 20260507195805 | 80 | 105 | 4.0 | 9.0 | 0.00 | 0.00 | 0.00 | 62 | 1008.8 |
| 20260507195509 | 80 | 113 | 2.0 | 9.0 | 0.00 | 0.00 | 0.00 | 61 | 1008.8 |
| 20260507195306 | 80 | 49 | 3.0 | 9.0 | 0.00 | 0.00 | 0.00 | 61 | 1008.8 |
| 20260507195205 | 81 | 106 | 4.0 | 9.0 | 0.00 | 0.00 | 0.00 | 61 | 1008.9 |
| 20260507195105 | 81 | 38 | 4.0 | 9.0 | 0.00 | 0.00 | 0.00 | 60 | 1008.8 |
| 20260507195010 | 81 | 146 | 3.0 | 9.0 | 0.00 | 0.00 | 0.00 | 60 | 1008.9 |
| 20260507194905 | 81 | 32 | 2.0 | 6.0 | 0.00 | 0.00 | 0.00 | 60 | 1008.8 |
| 20260507194706 | 81 | 56 | 4.0 | 6.0 | 0.00 | 0.00 | 0.00 | 59 | 1008.8 |
| 20260507194509 | 82 | 52 | 3.0 | 5.0 | 0.00 | 0.00 | 0.00 | 58 | 1008.8 |
| 20260507194405 | 82 | 48 | 2.0 | 5.0 | 0.00 | 0.00 | 0.00 | 58 | 1008.7 |
| 20260507194304 | 82 | 57 | 2.0 | 4.0 | 0.00 | 0.00 | 0.00 | 57 | 1008.6 |
| 20260507194103 | 82 | 125 | 1.0 | 3.0 | 0.00 | 0.00 | 0.00 | 57 | 1008.5 |
| 20260507194008 | 82 | 123 | 1.0 | 3.0 | 0.00 | 0.00 | 0.00 | 57 | 1008.5 |
| 20260507193904 | 82 | 119 | 0.0 | 2.0 | 0.00 | 0.00 | 0.00 | 57 | 1008.4 |
| 20260507193804 | 82 | 194 | 0.0 | 2.0 | 0.00 | 0.00 | 0.00 | 57 | 1008.4 |
| 20260507193704 | 82 | 194 | 0.0 | 2.0 | 0.00 | 0.00 | 0.00 | 57 | 1008.4 |
| 20260507193604 | 82 | 194 | 0.0 | 4.0 | 0.00 | 0.00 | 0.00 | 57 | 1008.4 |
| 20260507193509 | 82 | 207 | 0.0 | 4.0 | 0.00 | 0.00 | 0.00 | 57 | 1008.4 |
| 20260507193405 | 82 | 221 | 1.0 | 6.0 | 0.00 | 0.00 | 0.00 | 57 | 1008.3 |
| 20260507193307 | 82 | 168 | 0.0 | 7.0 | 0.00 | 0.00 | 0.00 | 57 | 1008.4 |
| 20260507193202 | 82 | 146 | 0.0 | 7.0 | 0.00 | 0.00 | 0.00 | 56 | 1008.5 |
| 20260507193104 | 82 | 121 | 0.0 | 7.0 | 0.00 | 0.00 | 0.00 | 57 | 1008.5 |
| 20260507193009 | 82 | 118 | 1.0 | 7.0 | 0.00 | 0.00 | 0.00 | 57 | 1008.4 |
| 20260507192805 | 82 | 134 | 2.0 | 7.0 | 0.00 | 0.00 | 0.00 | 57 | 1008.5 |
| 20260507192704 | 82 | 153 | 2.0 | 7.0 | 0.00 | 0.00 | 0.00 | 57 | 1008.4 |
| 20260507192604 | 82 | 134 | 3.0 | 7.0 | 0.00 | 0.00 | 0.00 | 56 | 1008.5 |
| 20260507192508 | 82 | 148 | 4.0 | 7.0 | 0.00 | 0.00 | 0.00 | 56 | 1008.4 |
| 20260507192404 | 82 | 132 | 3.0 | 7.0 | 0.00 | 0.00 | 0.00 | 57 | 1008.4 |
| 20260507192209 | 82 | 127 | 3.0 | 7.0 | 0.00 | 0.00 | 0.00 | 56 | 1008.4 |
| 20260507192104 | 82 | 134 | 2.0 | 7.0 | 0.00 | 0.00 | 0.00 | 56 | 1008.5 |
| 20260507192012 | 82 | 165 | 2.0 | 7.0 | 0.00 | 0.00 | 0.00 | 56 | 1008.4 |
| 20260507191904 | 82 | 196 | 3.0 | 7.0 | 0.00 | 0.00 | 0.00 | 56 | 1008.4 |
| 20260507191805 | 82 | 189 | 4.0 | 7.0 | 0.00 | 0.00 | 0.00 | 56 | 1008.4 |
| 20260507191703 | 82 | 167 | 2.0 | 5.0 | 0.00 | 0.00 | 0.00 | 56 | 1008.4 |
| 20260507191404 | 82 | 196 | 2.0 | 6.0 | 0.00 | 0.00 | 0.00 | 56 | 1008.3 |
| 20260507191305 | 82 | 211 | 2.0 | 6.0 | 0.00 | 0.00 | 0.00 | 56 | 1008.4 |
| 20260507191204 | 82 | 202 | 1.0 | 8.0 | 0.00 | 0.00 | 0.00 | 56 | 1008.3 |
| 20260507191105 | 82 | 207 | 1.0 | 8.0 | 0.00 | 0.00 | 0.00 | 56 | 1008.3 |
| 20260507190905 | 82 | 185 | 1.0 | 8.0 | 0.00 | 0.00 | 0.00 | 56 | 1008.4 |
| 20260507190806 | 82 | 163 | 2.0 | 8.0 | 0.00 | 0.00 | 0.00 | 56 | 1008.4 |
| 20260507190707 | 82 | 226 | 4.0 | 8.0 | 0.00 | 0.00 | 0.00 | 56 | 1008.4 |
| 20260507190609 | 82 | 186 | 4.0 | 8.0 | 0.00 | 0.00 | 0.00 | 56 | 1008.4 |
| 20260507190406 | 82 | 165 | 3.0 | 8.0 | 0.00 | 0.00 | 0.00 | 56 | 1008.4 |
| 20260507190314 | 82 | 192 | 2.0 | 5.0 | 0.00 | 0.00 | 0.00 | 56 | 1008.4 |
| 20260507190207 | 82 | 165 | 1.0 | 5.0 | 0.00 | 0.00 | 0.00 | 56 | 1008.5 |
| 20260507190014 | 82 | 196 | 2.0 | 8.0 | 0.00 | 0.00 | 0.00 | 56 | 1008.5 |
| 20260507185903 | 82 | 167 | 1.0 | 8.0 | 0.00 | 0.00 | 0.00 | 57 | 1008.6 |
| 20260507185804 | 82 | 187 | 2.0 | 8.0 | 0.00 | 0.00 | 0.00 | 57 | 1008.5 |
| 20260507185703 | 82 | 151 | 2.0 | 8.0 | 0.00 | 0.00 | 0.00 | 57 | 1008.6 |
| 20260507185605 | 82 | 124 | 2.0 | 8.0 | 0.00 | 0.00 | 0.00 | 57 | 1008.6 |
| 20260507185506 | 82 | 175 | 2.0 | 8.0 | 0.00 | 0.00 | 0.00 | 57 | 1008.6 |
| 20260507185405 | 82 | 115 | 3.0 | 8.0 | 0.00 | 0.00 | 0.00 | 57 | 1008.6 |
| 20260507185306 | 82 | 168 | 3.0 | 8.0 | 0.00 | 0.00 | 0.00 | 56 | 1008.6 |
| 20260507185203 | 82 | 121 | 2.0 | 8.0 | 0.00 | 0.00 | 0.00 | 57 | 1008.6 |
| 20260507185104 | 82 | 144 | 0.0 | 5.0 | 0.00 | 0.00 | 0.00 | 57 | 1008.5 |
| 20260507185006 | 82 | 126 | 1.0 | 7.0 | 0.00 | 0.00 | 0.00 | 57 | 1008.5 |
| 20260507184904 | 82 | 168 | 2.0 | 7.0 | 0.00 | 0.00 | 0.00 | 57 | 1008.5 |
| 20260507184804 | 82 | 140 | 2.0 | 7.0 | 0.00 | 0.00 | 0.00 | 57 | 1008.6 |
| 20260507184605 | 82 | 107 | 0.0 | 7.0 | 0.00 | 0.00 | 0.00 | 57 | 1008.6 |
| 20260507184507 | 82 | 127 | 1.0 | 7.0 | 0.00 | 0.00 | 0.00 | 57 | 1008.6 |
| 20260507184404 | 82 | 98 | 3.0 | 8.0 | 0.00 | 0.00 | 0.00 | 57 | 1008.6 |
| 20260507184303 | 82 | 98 | 4.0 | 8.0 | 0.00 | 0.00 | 0.00 | 56 | 1008.6 |
| 20260507184204 | 82 | 143 | 3.0 | 8.0 | 0.00 | 0.00 | 0.00 | 57 | 1008.6 |
| 20260507184104 | 83 | 123 | 2.0 | 8.0 | 0.00 | 0.00 | 0.00 | 57 | 1008.6 |
| 20260507184006 | 82 | 103 | 1.0 | 8.0 | 0.00 | 0.00 | 0.00 | 57 | 1008.6 |
| 20260507183805 | 83 | 161 | 2.0 | 8.0 | 0.00 | 0.00 | 0.00 | 56 | 1008.7 |
| 20260507183709 | 82 | 153 | 4.0 | 8.0 | 0.00 | 0.00 | 0.00 | 56 | 1008.7 |
| 20260507183517 | 82 | 144 | 3.0 | 5.0 | 0.00 | 0.00 | 0.00 | 56 | 1008.7 |
| 20260507183405 | 83 | 115 | 2.0 | 5.0 | 0.00 | 0.00 | 0.00 | 57 | 1008.7 |
| 20260507183116 | 82 | 126 | 3.0 | 4.0 | 0.00 | 0.00 | 0.00 | 56 | 1008.7 |
| 20260507182903 | 82 | 122 | 2.0 | 4.0 | 0.00 | 0.00 | 0.00 | 57 | 1008.8 |
| 20260507182805 | 82 | 121 | 2.0 | 6.0 | 0.00 | 0.00 | 0.00 | 57 | 1008.8 |
| 20260507182704 | 82 | 146 | 3.0 | 6.0 | 0.00 | 0.00 | 0.00 | 57 | 1008.8 |
| 20260507182605 | 82 | 118 | 3.0 | 6.0 | 0.00 | 0.00 | 0.00 | 57 | 1008.8 |
| 20260507182403 | 83 | 163 | 1.0 | 6.0 | 0.00 | 0.00 | 0.00 | 57 | 1008.8 |
| 20260507182306 | 83 | 123 | 1.0 | 6.0 | 0.00 | 0.00 | 0.00 | 57 | 1008.8 |
| 20260507182204 | 83 | 170 | 1.0 | 6.0 | 0.00 | 0.00 | 0.00 | 57 | 1008.9 |
| 20260507182107 | 83 | 161 | 1.0 | 6.0 | 0.00 | 0.00 | 0.00 | 57 | 1008.9 |
| 20260507182008 | 83 | 114 | 2.0 | 6.0 | 0.00 | 0.00 | 0.00 | 57 | 1008.8 |
| 20260507181903 | 83 | 146 | 1.0 | 4.0 | 0.00 | 0.00 | 0.00 | 57 | 1008.9 |
| 20260507181805 | 83 | 142 | 0.0 | 4.0 | 0.00 | 0.00 | 0.00 | 57 | 1008.8 |
| 20260507181705 | 83 | 165 | 1.0 | 4.0 | 0.00 | 0.00 | 0.00 | 57 | 1008.8 |
| 20260507181603 | 83 | 94 | 1.0 | 4.0 | 0.00 | 0.00 | 0.00 | 57 | 1008.8 |
| 20260507181506 | 83 | 85 | 1.0 | 4.0 | 0.00 | 0.00 | 0.00 | 57 | 1008.9 |
| 20260507181404 | 83 | 88 | 2.0 | 4.0 | 0.00 | 0.00 | 0.00 | 56 | 1008.8 |
| 20260507181304 | 83 | 73 | 2.0 | 4.0 | 0.00 | 0.00 | 0.00 | 56 | 1008.8 |
| 20260507181204 | 83 | 74 | 2.0 | 4.0 | 0.00 | 0.00 | 0.00 | 56 | 1008.8 |
| 20260507181105 | 83 | 96 | 1.0 | 4.0 | 0.00 | 0.00 | 0.00 | 56 | 1008.8 |
| 20260507180804 | 83 | 95 | 1.0 | 4.0 | 0.00 | 0.00 | 0.00 | 56 | 1008.8 |
| 20260507180603 | 84 | 80 | 2.0 | 4.0 | 0.00 | 0.00 | 0.00 | 55 | 1008.9 |
| 20260507180506 | 84 | 83 | 2.0 | 4.0 | 0.00 | 0.00 | 0.00 | 55 | 1008.8 |
| 20260507180404 | 84 | 59 | 1.0 | 4.0 | 0.00 | 0.00 | 0.00 | 55 | 1008.8 |
| 20260507180303 | 84 | 144 | 1.0 | 4.0 | 0.00 | 0.00 | 0.00 | 55 | 1008.9 |
| 20260507180105 | 84 | 69 | 2.0 | 9.0 | 0.00 | 0.00 | 0.00 | 55 | 1008.7 |
| 20260507180012 | 84 | 64 | 2.0 | 9.0 | 0.00 | 0.00 | 0.00 | 55 | 1008.8 |
| 20260507175906 | 84 | 123 | 2.0 | 9.0 | 0.00 | 0.00 | 0.00 | 55 | 1008.8 |
| 20260507175804 | 84 | 105 | 2.0 | 9.0 | 0.00 | 0.00 | 0.00 | 54 | 1008.8 |
| 20260507175704 | 84 | 105 | 1.0 | 9.0 | 0.00 | 0.00 | 0.00 | 54 | 1008.8 |
| 20260507175603 | 84 | 128 | 1.0 | 9.0 | 0.00 | 0.00 | 0.00 | 54 | 1008.9 |
| 20260507175506 | 84 | 122 | 3.0 | 9.0 | 0.00 | 0.00 | 0.00 | 54 | 1008.9 |
| 20260507175405 | 84 | 74 | 5.0 | 9.0 | 0.00 | 0.00 | 0.00 | 53 | 1008.9 |
| 20260507175203 | 84 | 123 | 4.0 | 8.0 | 0.00 | 0.00 | 0.00 | 53 | 1008.9 |
| 20260507175007 | 84 | 54 | 4.0 | 8.0 | 0.00 | 0.00 | 0.00 | 53 | 1008.9 |
| 20260507174904 | 84 | 151 | 4.0 | 8.0 | 0.00 | 0.00 | 0.00 | 53 | 1008.9 |
| 20260507174803 | 84 | 101 | 3.0 | 8.0 | 0.00 | 0.00 | 0.00 | 53 | 1008.9 |
| 20260507174703 | 85 | 138 | 2.0 | 7.0 | 0.00 | 0.00 | 0.00 | 54 | 1008.9 |
| 20260507174604 | 85 | 124 | 2.0 | 7.0 | 0.00 | 0.00 | 0.00 | 53 | 1008.9 |
| 20260507174507 | 85 | 126 | 2.0 | 7.0 | 0.00 | 0.00 | 0.00 | 53 | 1008.9 |
| 20260507174303 | 85 | 163 | 2.0 | 7.0 | 0.00 | 0.00 | 0.00 | 53 | 1008.9 |
| 20260507174104 | 85 | 117 | 1.0 | 6.0 | 0.00 | 0.00 | 0.00 | 53 | 1009.0 |
| 20260507174007 | 85 | 92 | 1.0 | 6.0 | 0.00 | 0.00 | 0.00 | 53 | 1008.9 |
| 20260507173804 | 85 | 92 | 2.0 | 8.0 | 0.00 | 0.00 | 0.00 | 52 | 1008.9 |
| 20260507173703 | 85 | 99 | 2.0 | 8.0 | 0.00 | 0.00 | 0.00 | 52 | 1008.9 |
| 20260507173604 | 85 | 116 | 2.0 | 8.0 | 0.00 | 0.00 | 0.00 | 52 | 1008.9 |
| 20260507173503 | 85 | 69 | 2.0 | 8.0 | 0.00 | 0.00 | 0.00 | 52 | 1008.9 |
| 20260507173204 | 85 | 107 | 4.0 | 9.0 | 0.00 | 0.00 | 0.00 | 52 | 1009.0 |
| 20260507173103 | 85 | 124 | 5.0 | 9.0 | 0.00 | 0.00 | 0.00 | 51 | 1008.9 |
| 20260507173015 | 85 | 122 | 5.0 | 9.0 | 0.00 | 0.00 | 0.00 | 51 | 1008.9 |
| 20260507172904 | 85 | 109 | 5.0 | 9.0 | 0.00 | 0.00 | 0.00 | 51 | 1009.0 |
| 20260507172804 | 85 | 109 | 4.0 | 9.0 | 0.00 | 0.00 | 0.00 | 51 | 1008.9 |
| 20260507172705 | 85 | 111 | 4.0 | 9.0 | 0.00 | 0.00 | 0.00 | 51 | 1008.9 |
| 20260507172603 | 85 | 122 | 5.0 | 9.0 | 0.00 | 0.00 | 0.00 | 51 | 1008.9 |
| 20260507172404 | 85 | 128 | 4.0 | 9.0 | 0.00 | 0.00 | 0.00 | 51 | 1008.9 |
| 20260507172205 | 85 | 143 | 4.0 | 9.0 | 0.00 | 0.00 | 0.00 | 51 | 1008.9 |
| 20260507172106 | 85 | 157 | 5.0 | 9.0 | 0.00 | 0.00 | 0.00 | 51 | 1008.8 |
| 20260507172009 | 85 | 147 | 4.0 | 10.0 | 0.00 | 0.00 | 0.00 | 51 | 1008.8 |
| 20260507171903 | 85 | 144 | 5.0 | 10.0 | 0.00 | 0.00 | 0.00 | 51 | 1008.9 |
| 20260507171808 | 85 | 168 | 5.0 | 10.0 | 0.00 | 0.00 | 0.00 | 51 | 1008.9 |
| 20260507171703 | 85 | 153 | 4.0 | 10.0 | 0.00 | 0.00 | 0.00 | 51 | 1008.9 |
| 20260507171605 | 85 | 144 | 5.0 | 10.0 | 0.00 | 0.00 | 0.00 | 51 | 1008.9 |
| 20260507171403 | 85 | 177 | 6.0 | 10.0 | 0.00 | 0.00 | 0.00 | 51 | 1009.0 |
| 20260507171303 | 85 | 112 | 6.0 | 10.0 | 0.00 | 0.00 | 0.00 | 51 | 1009.0 |
| 20260507171006 | 85 | 175 | 4.0 | 10.0 | 0.00 | 0.00 | 0.00 | 51 | 1008.9 |
| 20260507170805 | 85 | 167 | 5.0 | 10.0 | 0.00 | 0.00 | 0.00 | 51 | 1008.9 |
| 20260507170705 | 86 | 151 | 5.0 | 10.0 | 0.00 | 0.00 | 0.00 | 51 | 1008.9 |
| 20260507170605 | 86 | 180 | 5.0 | 10.0 | 0.00 | 0.00 | 0.00 | 51 | 1008.9 |
| 20260507170506 | 86 | 167 | 5.0 | 10.0 | 0.00 | 0.00 | 0.00 | 51 | 1009.0 |
| 20260507170405 | 85 | 160 | 6.0 | 10.0 | 0.00 | 0.00 | 0.00 | 51 | 1008.9 |
| 20260507170204 | 86 | 134 | 5.0 | 10.0 | 0.00 | 0.00 | 0.00 | 51 | 1009.0 |
| 20260507170105 | 86 | 172 | 6.0 | 10.0 | 0.00 | 0.00 | 0.00 | 51 | 1009.0 |
| 20260507170011 | 86 | 143 | 6.0 | 10.0 | 0.00 | 0.00 | 0.00 | 51 | 1009.0 |
| 20260507165803 | 86 | 142 | 4.0 | 9.0 | 0.00 | 0.00 | 0.00 | 51 | 1009.0 |
| 20260507165704 | 86 | 181 | 4.0 | 9.0 | 0.00 | 0.00 | 0.00 | 51 | 1009.0 |
| 20260507165604 | 86 | 152 | 5.0 | 9.0 | 0.00 | 0.00 | 0.00 | 51 | 1009.0 |
| 20260507165505 | 86 | 150 | 5.0 | 9.0 | 0.00 | 0.00 | 0.00 | 51 | 1009.0 |
| 20260507165404 | 86 | 155 | 6.0 | 9.0 | 0.00 | 0.00 | 0.00 | 51 | 1009.0 |
| 20260507165306 | 86 | 174 | 5.0 | 9.0 | 0.00 | 0.00 | 0.00 | 51 | 1009.0 |
| 20260507165204 | 86 | 136 | 3.0 | 8.0 | 0.00 | 0.00 | 0.00 | 51 | 1009.0 |
| 20260507165101 | 86 | 147 | 3.0 | 9.0 | 0.00 | 0.00 | 0.00 | 51 | 1009.0 |
| 20260507165009 | 86 | 169 | 3.0 | 9.0 | 0.00 | 0.00 | 0.00 | 51 | 1009.0 |
| 20260507164804 | 86 | 149 | 4.0 | 9.0 | 0.00 | 0.00 | 0.00 | 51 | 1009.0 |
| 20260507164703 | 86 | 146 | 4.0 | 9.0 | 0.00 | 0.00 | 0.00 | 51 | 1009.0 |
| 20260507164602 | 86 | 148 | 4.0 | 9.0 | 0.00 | 0.00 | 0.00 | 51 | 1008.9 |
| 20260507164504 | 86 | 132 | 4.0 | 9.0 | 0.00 | 0.00 | 0.00 | 50 | 1008.9 |
| 20260507164404 | 86 | 130 | 4.0 | 9.0 | 0.00 | 0.00 | 0.00 | 50 | 1008.9 |
| 20260507164301 | 86 | 130 | 4.0 | 13.0 | 0.00 | 0.00 | 0.00 | 50 | 1008.9 |
| 20260507164203 | 86 | 190 | 6.0 | 13.0 | 0.00 | 0.00 | 0.00 | 50 | 1008.9 |
| 20260507164104 | 86 | 150 | 6.0 | 13.0 | 0.00 | 0.00 | 0.00 | 50 | 1008.9 |
| 20260507164006 | 86 | 134 | 5.0 | 13.0 | 0.00 | 0.00 | 0.00 | 50 | 1008.9 |
| 20260507163903 | 86 | 142 | 6.0 | 13.0 | 0.00 | 0.00 | 0.00 | 50 | 1008.9 |
| 20260507163803 | 86 | 129 | 7.0 | 13.0 | 0.00 | 0.00 | 0.00 | 50 | 1008.9 |
| 20260507163703 | 86 | 128 | 5.0 | 13.0 | 0.00 | 0.00 | 0.00 | 50 | 1008.9 |
| 20260507163606 | 86 | 144 | 7.0 | 13.0 | 0.00 | 0.00 | 0.00 | 50 | 1008.9 |
| 20260507163505 | 86 | 111 | 10.0 | 13.0 | 0.00 | 0.00 | 0.00 | 50 | 1008.9 |
| 20260507163402 | 86 | 123 | 9.0 | 13.0 | 0.00 | 0.00 | 0.00 | 50 | 1009.0 |
| 20260507163203 | 86 | 144 | 9.0 | 12.0 | 0.00 | 0.00 | 0.00 | 49 | 1008.9 |
| 20260507163111 | 86 | 123 | 8.0 | 12.0 | 0.00 | 0.00 | 0.00 | 49 | 1009.0 |
| 20260507163006 | 86 | 140 | 6.0 | 12.0 | 0.00 | 0.00 | 0.00 | 49 | 1009.0 |
| 20260507162803 | 86 | 134 | 6.0 | 12.0 | 0.00 | 0.00 | 0.00 | 49 | 1008.9 |
| 20260507162704 | 87 | 163 | 8.0 | 12.0 | 0.00 | 0.00 | 0.00 | 49 | 1009.0 |
| 20260507162605 | 87 | 128 | 7.0 | 12.0 | 0.00 | 0.00 | 0.00 | 49 | 1008.9 |
| 20260507162505 | 87 | 132 | 6.0 | 11.0 | 0.00 | 0.00 | 0.00 | 48 | 1008.9 |
| 20260507162403 | 87 | 118 | 7.0 | 11.0 | 0.00 | 0.00 | 0.00 | 48 | 1008.9 |
| 20260507162306 | 87 | 130 | 6.0 | 11.0 | 0.00 | 0.00 | 0.00 | 48 | 1008.9 |
| 20260507162203 | 87 | 148 | 6.0 | 13.0 | 0.00 | 0.00 | 0.00 | 48 | 1009.0 |
| 20260507162102 | 87 | 123 | 7.0 | 13.0 | 0.00 | 0.00 | 0.00 | 48 | 1008.9 |
| 20260507162008 | 87 | 144 | 6.0 | 13.0 | 0.00 | 0.00 | 0.00 | 48 | 1008.9 |
| 20260507161902 | 87 | 137 | 6.0 | 13.0 | 0.00 | 0.00 | 0.00 | 48 | 1008.8 |
| 20260507161804 | 87 | 132 | 7.0 | 13.0 | 0.00 | 0.00 | 0.00 | 48 | 1009.0 |
| 20260507161704 | 87 | 136 | 7.0 | 13.0 | 0.00 | 0.00 | 0.00 | 48 | 1008.9 |
| 20260507161605 | 87 | 135 | 8.0 | 13.0 | 0.00 | 0.00 | 0.00 | 48 | 1008.9 |
| 20260507161505 | 87 | 151 | 8.0 | 14.0 | 0.00 | 0.00 | 0.00 | 48 | 1008.9 |
| 20260507161304 | 87 | 151 | 7.0 | 14.0 | 0.00 | 0.00 | 0.00 | 47 | 1008.9 |
| 20260507161203 | 87 | 120 | 6.0 | 14.0 | 0.00 | 0.00 | 0.00 | 47 | 1008.9 |
| 20260507161103 | 87 | 130 | 6.0 | 14.0 | 0.00 | 0.00 | 0.00 | 47 | 1008.9 |
| 20260507161018 | 87 | 134 | 8.0 | 14.0 | 0.00 | 0.00 | 0.00 | 47 | 1008.9 |
| 20260507160902 | 87 | 159 | 8.0 | 14.0 | 0.00 | 0.00 | 0.00 | 47 | 1008.9 |
| 20260507160805 | 87 | 143 | 8.0 | 14.0 | 0.00 | 0.00 | 0.00 | 47 | 1008.9 |
| 20260507160505 | 87 | 143 | 6.0 | 11.0 | 0.00 | 0.00 | 0.00 | 46 | 1008.8 |
| 20260507160303 | 88 | 142 | 9.0 | 11.0 | 0.00 | 0.00 | 0.00 | 46 | 1008.9 |
| 20260507160204 | 88 | 137 | 8.0 | 11.0 | 0.00 | 0.00 | 0.00 | 46 | 1008.8 |
| 20260507160104 | 88 | 145 | 7.0 | 12.0 | 0.00 | 0.00 | 0.00 | 46 | 1008.8 |
| 20260507155902 | 88 | 127 | 5.0 | 12.0 | 0.00 | 0.00 | 0.00 | 46 | 1008.8 |
| 20260507155803 | 88 | 117 | 6.0 | 12.0 | 0.00 | 0.00 | 0.00 | 45 | 1008.8 |
| 20260507155703 | 88 | 132 | 7.0 | 12.0 | 0.00 | 0.00 | 0.00 | 45 | 1008.8 |
| 20260507155604 | 88 | 130 | 8.0 | 12.0 | 0.00 | 0.00 | 0.00 | 45 | 1008.8 |
| 20260507155508 | 88 | 147 | 6.0 | 12.0 | 0.00 | 0.00 | 0.00 | 45 | 1008.7 |
| 20260507155404 | 88 | 123 | 7.0 | 12.0 | 0.00 | 0.00 | 0.00 | 45 | 1008.7 |
| 20260507155306 | 88 | 143 | 10.0 | 12.0 | 0.00 | 0.00 | 0.00 | 44 | 1008.7 |
| 20260507155203 | 88 | 112 | 9.0 | 12.0 | 0.00 | 0.00 | 0.00 | 44 | 1008.6 |
| 20260507155104 | 88 | 143 | 8.0 | 12.0 | 0.00 | 0.00 | 0.00 | 44 | 1008.6 |
| 20260507155009 | 88 | 142 | 7.0 | 12.0 | 0.00 | 0.00 | 0.00 | 44 | 1008.7 |
| 20260507154902 | 88 | 136 | 6.0 | 12.0 | 0.00 | 0.00 | 0.00 | 44 | 1008.6 |
| 20260507154804 | 88 | 157 | 7.0 | 11.0 | 0.00 | 0.00 | 0.00 | 44 | 1008.6 |
| 20260507154603 | 89 | 140 | 7.0 | 11.0 | 0.00 | 0.00 | 0.00 | 43 | 1008.5 |
| 20260507154505 | 89 | 138 | 6.0 | 11.0 | 0.00 | 0.00 | 0.00 | 43 | 1008.6 |
| 20260507154403 | 89 | 139 | 4.0 | 8.0 | 0.00 | 0.00 | 0.00 | 43 | 1008.5 |
| 20260507154302 | 89 | 125 | 3.0 | 7.0 | 0.00 | 0.00 | 0.00 | 43 | 1008.5 |
| 20260507154205 | 89 | 136 | 3.0 | 7.0 | 0.00 | 0.00 | 0.00 | 42 | 1008.4 |
| 20260507154103 | 89 | 121 | 3.0 | 8.0 | 0.00 | 0.00 | 0.00 | 42 | 1008.5 |
| 20260507154009 | 89 | 143 | 3.0 | 8.0 | 0.00 | 0.00 | 0.00 | 42 | 1008.4 |
| 20260507153702 | 89 | 169 | 3.0 | 8.0 | 0.00 | 0.00 | 0.00 | 42 | 1008.4 |
| 20260507153602 | 89 | 126 | 3.0 | 8.0 | 0.00 | 0.00 | 0.00 | 42 | 1008.4 |
| 20260507153505 | 89 | 127 | 3.0 | 8.0 | 0.00 | 0.00 | 0.00 | 42 | 1008.3 |
| 20260507153403 | 89 | 179 | 4.0 | 8.0 | 0.00 | 0.00 | 0.00 | 42 | 1008.4 |
| 20260507153303 | 89 | 146 | 4.0 | 8.0 | 0.00 | 0.00 | 0.00 | 42 | 1008.3 |
| 20260507153103 | 89 | 147 | 3.0 | 8.0 | 0.00 | 0.00 | 0.00 | 42 | 1008.3 |
| 20260507153007 | 89 | 128 | 3.0 | 8.0 | 0.00 | 0.00 | 0.00 | 42 | 1008.3 |
| 20260507152902 | 89 | 143 | 3.0 | 8.0 | 0.00 | 0.00 | 0.00 | 42 | 1008.3 |
| 20260507152803 | 89 | 175 | 3.0 | 8.0 | 0.00 | 0.00 | 0.00 | 41 | 1008.3 |
| 20260507152702 | 89 | 161 | 4.0 | 8.0 | 0.00 | 0.00 | 0.00 | 41 | 1008.4 |
| 20260507152602 | 89 | 140 | 3.0 | 8.0 | 0.00 | 0.00 | 0.00 | 41 | 1008.2 |
| 20260507152504 | 89 | 126 | 3.0 | 8.0 | 0.00 | 0.00 | 0.00 | 41 | 1008.3 |
| 20260507152403 | 89 | 172 | 4.0 | 8.0 | 0.00 | 0.00 | 0.00 | 41 | 1008.3 |
| 20260507152306 | 89 | 127 | 5.0 | 8.0 | 0.00 | 0.00 | 0.00 | 41 | 1008.2 |
| 20260507152202 | 89 | 139 | 6.0 | 8.0 | 0.00 | 0.00 | 0.00 | 41 | 1008.2 |
| 20260507152103 | 89 | 109 | 6.0 | 8.0 | 0.00 | 0.00 | 0.00 | 41 | 1008.1 |
| 20260507151902 | 89 | 130 | 5.0 | 8.0 | 0.00 | 0.00 | 0.00 | 41 | 1008.2 |
| 20260507151804 | 89 | 132 | 5.0 | 8.0 | 0.00 | 0.00 | 0.00 | 41 | 1008.2 |
| 20260507151705 | 89 | 130 | 5.0 | 8.0 | 0.00 | 0.00 | 0.00 | 41 | 1008.2 |
| 20260507151603 | 89 | 152 | 5.0 | 8.0 | 0.00 | 0.00 | 0.00 | 41 | 1008.2 |
| 20260507151506 | 89 | 134 | 4.0 | 8.0 | 0.00 | 0.00 | 0.00 | 41 | 1008.1 |
| 20260507151403 | 89 | 129 | 5.0 | 8.0 | 0.00 | 0.00 | 0.00 | 41 | 1008.1 |
| 20260507151203 | 89 | 135 | 4.0 | 7.0 | 0.00 | 0.00 | 0.00 | 41 | 1008.1 |
| 20260507151104 | 89 | 134 | 3.0 | 7.0 | 0.00 | 0.00 | 0.00 | 41 | 1008.1 |
| 20260507151007 | 89 | 116 | 3.0 | 7.0 | 0.00 | 0.00 | 0.00 | 41 | 1008.1 |
| 20260507150803 | 89 | 171 | 3.0 | 6.0 | 0.00 | 0.00 | 0.00 | 41 | 1008.1 |
| 20260507150703 | 89 | 138 | 2.0 | 6.0 | 0.00 | 0.00 | 0.00 | 41 | 1008.0 |
| 20260507150603 | 89 | 132 | 2.0 | 6.0 | 0.00 | 0.00 | 0.00 | 41 | 1008.0 |
| 20260507150504 | 89 | 128 | 2.0 | 8.0 | 0.00 | 0.00 | 0.00 | 41 | 1008.0 |
| 20260507150404 | 90 | 142 | 2.0 | 8.0 | 0.00 | 0.00 | 0.00 | 41 | 1008.1 |
| 20260507150303 | 90 | 123 | 3.0 | 8.0 | 0.00 | 0.00 | 0.00 | 41 | 1008.0 |
| 20260507150203 | 90 | 126 | 3.0 | 8.0 | 0.00 | 0.00 | 0.00 | 41 | 1008.0 |
| 20260507150104 | 90 | 165 | 2.0 | 8.0 | 0.00 | 0.00 | 0.00 | 41 | 1008.0 |
| 20260507150007 | 90 | 136 | 2.0 | 8.0 | 0.00 | 0.00 | 0.00 | 41 | 1007.9 |
| 20260507145803 | 90 | 117 | 4.0 | 8.0 | 0.00 | 0.00 | 0.00 | 41 | 1007.9 |
| 20260507145703 | 90 | 163 | 4.0 | 8.0 | 0.00 | 0.00 | 0.00 | 41 | 1007.9 |
| 20260507145603 | 90 | 114 | 3.0 | 8.0 | 0.00 | 0.00 | 0.00 | 41 | 1007.9 |
| 20260507145504 | 90 | 169 | 3.0 | 8.0 | 0.00 | 0.00 | 0.00 | 41 | 1007.8 |
| 20260507145402 | 90 | 88 | 3.0 | 8.0 | 0.00 | 0.00 | 0.00 | 41 | 1007.8 |
| 20260507145306 | 90 | 116 | 2.0 | 8.0 | 0.00 | 0.00 | 0.00 | 41 | 1007.8 |
| 20260507145202 | 90 | 164 | 2.0 | 8.0 | 0.00 | 0.00 | 0.00 | 41 | 1007.8 |
| 20260507145101 | 90 | 122 | 4.0 | 8.0 | 0.00 | 0.00 | 0.00 | 41 | 1007.8 |
| 20260507145006 | 90 | 138 | 4.0 | 8.0 | 0.00 | 0.00 | 0.00 | 41 | 1007.7 |
| 20260507144803 | 90 | 169 | 2.0 | 7.0 | 0.00 | 0.00 | 0.00 | 41 | 1007.8 |
| 20260507144702 | 90 | 154 | 2.0 | 7.0 | 0.00 | 0.00 | 0.00 | 41 | 1007.8 |
| 20260507144602 | 90 | 126 | 2.0 | 7.0 | 0.00 | 0.00 | 0.00 | 41 | 1007.7 |
| 20260507144403 | 90 | 144 | 4.0 | 7.0 | 0.00 | 0.00 | 0.00 | 40 | 1007.7 |
| 20260507144304 | 90 | 136 | 4.0 | 9.0 | 0.00 | 0.00 | 0.00 | 40 | 1007.7 |
| 20260507144203 | 90 | 146 | 4.0 | 9.0 | 0.00 | 0.00 | 0.00 | 40 | 1007.7 |
| 20260507144104 | 90 | 134 | 4.0 | 9.0 | 0.00 | 0.00 | 0.00 | 40 | 1007.6 |
| 20260507144006 | 90 | 121 | 3.0 | 9.0 | 0.00 | 0.00 | 0.00 | 40 | 1007.7 |
| 20260507143903 | 90 | 130 | 4.0 | 9.0 | 0.00 | 0.00 | 0.00 | 40 | 1007.7 |
| 20260507143801 | 90 | 146 | 5.0 | 9.0 | 0.00 | 0.00 | 0.00 | 40 | 1007.6 |
| 20260507143702 | 90 | 144 | 5.0 | 9.0 | 0.00 | 0.00 | 0.00 | 40 | 1007.7 |
| 20260507143603 | 90 | 142 | 5.0 | 9.0 | 0.00 | 0.00 | 0.00 | 40 | 1007.6 |
| 20260507143505 | 90 | 119 | 4.0 | 8.0 | 0.00 | 0.00 | 0.00 | 41 | 1007.7 |
| 20260507143404 | 90 | 147 | 3.0 | 7.0 | 0.00 | 0.00 | 0.00 | 41 | 1007.7 |
| 20260507143303 | 90 | 125 | 2.0 | 7.0 | 0.00 | 0.00 | 0.00 | 41 | 1007.6 |
| 20260507143204 | 90 | 82 | 2.0 | 7.0 | 0.00 | 0.00 | 0.00 | 41 | 1007.6 |
| 20260507143103 | 90 | 153 | 1.0 | 7.0 | 0.00 | 0.00 | 0.00 | 41 | 1007.6 |
| 20260507143007 | 90 | 88 | 0.0 | 7.0 | 0.00 | 0.00 | 0.00 | 41 | 1007.6 |
| 20260507142902 | 90 | 136 | 1.0 | 7.0 | 0.00 | 0.00 | 0.00 | 41 | 1007.6 |
| 20260507142703 | 90 | 105 | 3.0 | 7.0 | 0.00 | 0.00 | 0.00 | 41 | 1007.6 |
| 20260507142602 | 90 | 109 | 3.0 | 9.0 | 0.00 | 0.00 | 0.00 | 40 | 1007.6 |
| 20260507142506 | 90 | 96 | 3.0 | 9.0 | 0.00 | 0.00 | 0.00 | 40 | 1007.6 |
| 20260507142306 | 90 | 148 | 2.0 | 9.0 | 0.00 | 0.00 | 0.00 | 40 | 1007.6 |
| 20260507142202 | 90 | 90 | 2.0 | 9.0 | 0.00 | 0.00 | 0.00 | 40 | 1007.5 |
| 20260507142103 | 90 | 77 | 2.0 | 9.0 | 0.00 | 0.00 | 0.00 | 40 | 1007.5 |
| 20260507141902 | 90 | 120 | 4.0 | 9.0 | 0.00 | 0.00 | 0.00 | 39 | 1007.5 |
| 20260507141803 | 90 | 126 | 4.0 | 9.0 | 0.00 | 0.00 | 0.00 | 40 | 1007.4 |
| 20260507141703 | 90 | 126 | 4.0 | 9.0 | 0.00 | 0.00 | 0.00 | 40 | 1007.5 |
| 20260507141603 | 90 | 132 | 5.0 | 9.0 | 0.00 | 0.00 | 0.00 | 40 | 1007.4 |
| 20260507141506 | 90 | 107 | 6.0 | 9.0 | 0.00 | 0.00 | 0.00 | 40 | 1007.4 |
| 20260507141402 | 90 | 130 | 5.0 | 9.0 | 0.00 | 0.00 | 0.00 | 40 | 1007.2 |
| 20260507141303 | 90 | 134 | 3.0 | 8.0 | 0.00 | 0.00 | 0.00 | 40 | 1007.2 |
| 20260507141202 | 90 | 130 | 2.0 | 8.0 | 0.00 | 0.00 | 0.00 | 41 | 1007.3 |
| 20260507141102 | 91 | 132 | 2.0 | 8.0 | 0.00 | 0.00 | 0.00 | 40 | 1007.2 |
| 20260507141007 | 91 | 119 | 3.0 | 8.0 | 0.00 | 0.00 | 0.00 | 40 | 1007.2 |
| 20260507140903 | 91 | 139 | 3.0 | 8.0 | 0.00 | 0.00 | 0.00 | 40 | 1007.1 |
| 20260507140802 | 91 | 132 | 3.0 | 8.0 | 0.00 | 0.00 | 0.00 | 40 | 1007.2 |
| 20260507140701 | 91 | 126 | 4.0 | 8.0 | 0.00 | 0.00 | 0.00 | 40 | 1007.2 |
| 20260507140604 | 91 | 128 | 5.0 | 8.0 | 0.00 | 0.00 | 0.00 | 40 | 1007.3 |
| 20260507140504 | 91 | 106 | 3.0 | 8.0 | 0.00 | 0.00 | 0.00 | 40 | 1007.3 |
| 20260507140406 | 91 | 94 | 1.0 | 4.0 | 0.00 | 0.00 | 0.00 | 40 | 1007.3 |
| 20260507140303 | 91 | 58 | 2.0 | 4.0 | 0.00 | 0.00 | 0.00 | 40 | 1007.3 |
| 20260507140204 | 91 | 59 | 2.0 | 4.0 | 0.00 | 0.00 | 0.00 | 40 | 1007.3 |
| 20260507140008 | 91 | 94 | 2.0 | 6.0 | 0.00 | 0.00 | 0.00 | 40 | 1007.1 |
| 20260507135903 | 91 | 87 | 2.0 | 6.0 | 0.00 | 0.00 | 0.00 | 40 | 1007.2 |
| 20260507135804 | 91 | 82 | 2.0 | 6.0 | 0.00 | 0.00 | 0.00 | 40 | 1007.2 |
| 20260507135702 | 91 | 114 | 2.0 | 6.0 | 0.00 | 0.00 | 0.00 | 40 | 1007.1 |
| 20260507135606 | 91 | 77 | 2.0 | 6.0 | 0.00 | 0.00 | 0.00 | 40 | 1007.2 |
| 20260507135506 | 91 | 61 | 2.0 | 6.0 | 0.00 | 0.00 | 0.00 | 40 | 1007.2 |
| 20260507135403 | 91 | 114 | 3.0 | 6.0 | 0.00 | 0.00 | 0.00 | 40 | 1007.2 |
| 20260507135202 | 91 | 90 | 2.0 | 6.0 | 0.00 | 0.00 | 0.00 | 40 | 1007.1 |
| 20260507135103 | 91 | 103 | 3.0 | 6.0 | 0.00 | 0.00 | 0.00 | 40 | 1007.1 |
| 20260507135006 | 91 | 123 | 3.0 | 6.0 | 0.00 | 0.00 | 0.00 | 40 | 1007.2 |
| 20260507134902 | 91 | 138 | 3.0 | 6.0 | 0.00 | 0.00 | 0.00 | 40 | 1007.1 |
| 20260507134802 | 91 | 100 | 2.0 | 6.0 | 0.00 | 0.00 | 0.00 | 40 | 1007.1 |
| 20260507134701 | 91 | 88 | 2.0 | 4.0 | 0.00 | 0.00 | 0.00 | 40 | 1007.1 |
| 20260507134610 | 91 | 115 | 3.0 | 4.0 | 0.00 | 0.00 | 0.00 | 40 | 1007.1 |
| 20260507134505 | 91 | 103 | 2.0 | 4.0 | 0.00 | 0.00 | 0.00 | 40 | 1007.2 |
| 20260507134303 | 91 | 117 | 1.0 | 4.0 | 0.00 | 0.00 | 0.00 | 40 | 1007.2 |
| 20260507134202 | 91 | 88 | 2.0 | 4.0 | 0.00 | 0.00 | 0.00 | 40 | 1007.3 |
| 20260507134104 | 91 | 105 | 2.0 | 4.0 | 0.00 | 0.00 | 0.00 | 40 | 1007.3 |
| 20260507134007 | 91 | 103 | 2.0 | 4.0 | 0.00 | 0.00 | 0.00 | 40 | 1007.3 |
| 20260507133903 | 91 | 80 | 2.0 | 4.0 | 0.00 | 0.00 | 0.00 | 40 | 1007.3 |
| 20260507133802 | 91 | 119 | 2.0 | 3.0 | 0.00 | 0.00 | 0.00 | 40 | 1007.2 |
| 20260507133702 | 91 | 113 | 1.0 | 3.0 | 0.00 | 0.00 | 0.00 | 40 | 1007.2 |
| 20260507133609 | 92 | 103 | 0.0 | 4.0 | 0.00 | 0.00 | 0.00 | 40 | 1007.2 |
| 20260507133505 | 92 | 127 | 0.0 | 4.0 | 0.00 | 0.00 | 0.00 | 40 | 1007.2 |
| 20260507133408 | 92 | 173 | 1.0 | 4.0 | 0.00 | 0.00 | 0.00 | 39 | 1007.3 |
| 20260507133308 | 91 | 135 | 1.0 | 4.0 | 0.00 | 0.00 | 0.00 | 40 | 1007.2 |
| 20260507133203 | 92 | 97 | 1.0 | 4.0 | 0.00 | 0.00 | 0.00 | 39 | 1007.2 |
| 20260507133104 | 92 | 142 | 2.0 | 4.0 | 0.00 | 0.00 | 0.00 | 39 | 1007.3 |
| 20260507133007 | 92 | 86 | 2.0 | 4.0 | 0.00 | 0.00 | 0.00 | 39 | 1007.2 |
| 20260507132802 | 92 | 136 | 2.0 | 4.0 | 0.00 | 0.00 | 0.00 | 39 | 1007.1 |
| 20260507132703 | 92 | 109 | 1.0 | 4.0 | 0.00 | 0.00 | 0.00 | 39 | 1007.1 |
| 20260507132605 | 92 | 111 | 2.0 | 4.0 | 0.00 | 0.00 | 0.00 | 39 | 1007.1 |
| 20260507132504 | 92 | 104 | 1.0 | 4.0 | 0.00 | 0.00 | 0.00 | 39 | 1007.0 |
| 20260507132403 | 92 | 118 | 2.0 | 4.0 | 0.00 | 0.00 | 0.00 | 39 | 1007.1 |
| 20260507132306 | 92 | 83 | 2.0 | 4.0 | 0.00 | 0.00 | 0.00 | 39 | 1007.1 |
| 20260507132203 | 92 | 110 | 2.0 | 4.0 | 0.00 | 0.00 | 0.00 | 39 | 1007.1 |
| 20260507132104 | 92 | 150 | 2.0 | 4.0 | 0.00 | 0.00 | 0.00 | 39 | 1007.1 |
| 20260507132007 | 92 | 98 | 2.0 | 4.0 | 0.00 | 0.00 | 0.00 | 39 | 1007.1 |
| 20260507131901 | 92 | 17 | 2.0 | 6.0 | 0.00 | 0.00 | 0.00 | 39 | 1007.2 |
| 20260507131803 | 92 | 140 | 2.0 | 6.0 | 0.00 | 0.00 | 0.00 | 39 | 1007.2 |
| 20260507131703 | 92 | 78 | 2.0 | 6.0 | 0.00 | 0.00 | 0.00 | 39 | 1007.2 |
| 20260507131506 | 92 | 66 | 2.0 | 6.0 | 0.00 | 0.00 | 0.00 | 39 | 1007.2 |
| 20260507131403 | 92 | 86 | 2.0 | 7.0 | 0.00 | 0.00 | 0.00 | 39 | 1007.3 |
| 20260507131303 | 92 | 84 | 2.0 | 7.0 | 0.00 | 0.00 | 0.00 | 39 | 1007.2 |
| 20260507131204 | 92 | 112 | 3.0 | 7.0 | 0.00 | 0.00 | 0.00 | 39 | 1007.2 |
| 20260507131104 | 92 | 115 | 3.0 | 7.0 | 0.00 | 0.00 | 0.00 | 38 | 1007.1 |
| 20260507130902 | 92 | 81 | 3.0 | 7.0 | 0.00 | 0.00 | 0.00 | 38 | 1007.1 |
| 20260507130802 | 92 | 123 | 3.0 | 7.0 | 0.00 | 0.00 | 0.00 | 38 | 1007.1 |
| 20260507130702 | 92 | 82 | 4.0 | 7.0 | 0.00 | 0.00 | 0.00 | 38 | 1007.1 |
| 20260507130605 | 92 | 113 | 3.0 | 7.0 | 0.00 | 0.00 | 0.00 | 38 | 1007.0 |
| 20260507130505 | 92 | 86 | 2.0 | 7.0 | 0.00 | 0.00 | 0.00 | 38 | 1007.1 |
| 20260507130404 | 92 | 79 | 2.0 | 7.0 | 0.00 | 0.00 | 0.00 | 38 | 1007.1 |
| 20260507130304 | 92 | 90 | 2.0 | 7.0 | 0.00 | 0.00 | 0.00 | 38 | 1007.1 |
| 20260507130203 | 92 | 109 | 3.0 | 7.0 | 0.00 | 0.00 | 0.00 | 38 | 1007.1 |
| 20260507130007 | 92 | 101 | 3.0 | 7.0 | 0.00 | 0.00 | 0.00 | 39 | 1007.0 |
| 20260507125903 | 92 | 101 | 3.0 | 7.0 | 0.00 | 0.00 | 0.00 | 38 | 1007.0 |
| 20260507125704 | 92 | 104 | 4.0 | 7.0 | 0.00 | 0.00 | 0.00 | 39 | 1007.0 |
| 20260507125604 | 92 | 145 | 3.0 | 5.0 | 0.00 | 0.00 | 0.00 | 39 | 1007.0 |
| 20260507125506 | 92 | 150 | 3.0 | 5.0 | 0.00 | 0.00 | 0.00 | 39 | 1007.1 |
| 20260507125403 | 92 | 148 | 2.0 | 5.0 | 0.00 | 0.00 | 0.00 | 38 | 1007.1 |
| 20260507125202 | 92 | 103 | 2.0 | 4.0 | 0.00 | 0.00 | 0.00 | 39 | 1007.0 |
| 20260507125102 | 92 | 49 | 3.0 | 4.0 | 0.00 | 0.00 | 0.00 | 39 | 1007.1 |
| 20260507124902 | 92 | 122 | 2.0 | 4.0 | 0.00 | 0.00 | 0.00 | 39 | 1007.2 |
| 20260507124806 | 92 | 99 | 2.0 | 4.0 | 0.00 | 0.00 | 0.00 | 39 | 1007.2 |
| 20260507124703 | 92 | 73 | 2.0 | 5.0 | 0.00 | 0.00 | 0.00 | 39 | 1007.2 |
| 20260507124506 | 92 | 118 | 2.0 | 5.0 | 0.00 | 0.00 | 0.00 | 38 | 1007.3 |
| 20260507124404 | 92 | 77 | 2.0 | 7.0 | 0.00 | 0.00 | 0.00 | 39 | 1007.3 |
| 20260507124308 | 92 | 113 | 1.0 | 7.0 | 0.00 | 0.00 | 0.00 | 39 | 1007.3 |
| 20260507124214 | 92 | 115 | 1.0 | 7.0 | 0.00 | 0.00 | 0.00 | 38 | 1007.3 |
| 20260507124006 | 92 | 63 | 2.0 | 7.0 | 0.00 | 0.00 | 0.00 | 38 | 1007.2 |
| 20260507123907 | 92 | 117 | 2.0 | 7.0 | 0.00 | 0.00 | 0.00 | 38 | 1007.2 |
| 20260507123802 | 93 | 100 | 2.0 | 7.0 | 0.00 | 0.00 | 0.00 | 38 | 1007.1 |
| 20260507123704 | 93 | 115 | 4.0 | 7.0 | 0.00 | 0.00 | 0.00 | 38 | 1007.2 |
| 20260507123506 | 93 | 53 | 3.0 | 6.0 | 0.00 | 0.00 | 0.00 | 39 | 1007.2 |
| 20260507123406 | 93 | 61 | 3.0 | 6.0 | 0.00 | 0.00 | 0.00 | 38 | 1007.1 |
| 20260507123303 | 93 | 77 | 3.0 | 7.0 | 0.00 | 0.00 | 0.00 | 38 | 1007.1 |
| 20260507123203 | 93 | 80 | 2.0 | 6.0 | 0.00 | 0.00 | 0.00 | 38 | 1007.1 |
| 20260507123105 | 93 | 70 | 3.0 | 6.0 | 0.00 | 0.00 | 0.00 | 38 | 1007.0 |
| 20260507123007 | 93 | 115 | 3.0 | 6.0 | 0.00 | 0.00 | 0.00 | 38 | 1007.1 |
| 20260507122903 | 93 | 95 | 2.0 | 4.0 | 0.00 | 0.00 | 0.00 | 38 | 1007.1 |
| 20260507122802 | 93 | 74 | 2.0 | 4.0 | 0.00 | 0.00 | 0.00 | 38 | 1007.1 |
| 20260507122702 | 93 | 131 | 1.0 | 4.0 | 0.00 | 0.00 | 0.00 | 38 | 1007.2 |
| 20260507122604 | 93 | 81 | 1.0 | 4.0 | 0.00 | 0.00 | 0.00 | 39 | 1007.1 |
| 20260507122505 | 93 | 117 | 2.0 | 4.0 | 0.00 | 0.00 | 0.00 | 38 | 1007.1 |
| 20260507122402 | 93 | 79 | 2.0 | 5.0 | 0.00 | 0.00 | 0.00 | 38 | 1007.2 |
| 20260507122307 | 93 | 86 | 2.0 | 5.0 | 0.00 | 0.00 | 0.00 | 38 | 1007.2 |
| 20260507122203 | 93 | 111 | 2.0 | 5.0 | 0.00 | 0.00 | 0.00 | 38 | 1007.2 |
| 20260507122103 | 93 | 152 | 2.0 | 5.0 | 0.00 | 0.00 | 0.00 | 38 | 1007.2 |
| 20260507122012 | 93 | 71 | 2.0 | 5.0 | 0.00 | 0.00 | 0.00 | 38 | 1007.3 |
| 20260507121803 | 93 | 74 | 2.0 | 5.0 | 0.00 | 0.00 | 0.00 | 38 | 1007.2 |
| 20260507121702 | 93 | 27 | 3.0 | 5.0 | 0.00 | 0.00 | 0.00 | 38 | 1007.2 |
| 20260507121504 | 93 | 66 | 3.0 | 5.0 | 0.00 | 0.00 | 0.00 | 38 | 1007.1 |
| 20260507121403 | 93 | 108 | 2.0 | 5.0 | 0.00 | 0.00 | 0.00 | 38 | 1007.2 |
| 20260507121303 | 93 | 88 | 3.0 | 6.0 | 0.00 | 0.00 | 0.00 | 38 | 1007.2 |
| 20260507121203 | 93 | 360 | 3.0 | 6.0 | 0.00 | 0.00 | 0.00 | 38 | 1007.2 |
| 20260507120902 | 93 | 85 | 2.0 | 6.0 | 0.00 | 0.00 | 0.00 | 37 | 1007.2 |
| 20260507120806 | 93 | 100 | 2.0 | 6.0 | 0.00 | 0.00 | 0.00 | 37 | 1007.2 |
| 20260507120703 | 93 | 112 | 3.0 | 6.0 | 0.00 | 0.00 | 0.00 | 37 | 1007.2 |
| 20260507120605 | 93 | 41 | 4.0 | 6.0 | 0.00 | 0.00 | 0.00 | 37 | 1007.2 |
| 20260507120505 | 93 | 70 | 5.0 | 6.0 | 0.00 | 0.00 | 0.00 | 37 | 1007.1 |
| 20260507120306 | 93 | 88 | 3.0 | 6.0 | 0.00 | 0.00 | 0.00 | 37 | 1007.1 |
| 20260507120205 | 93 | 52 | 3.0 | 6.0 | 0.00 | 0.00 | 0.00 | 37 | 1007.1 |
| 20260507120008 | 93 | 109 | 4.0 | 6.0 | 0.00 | 0.00 | 0.00 | 36 | 1007.1 |
| 20260507115903 | 93 | 136 | 3.0 | 5.0 | 0.00 | 0.00 | 0.00 | 36 | 1007.0 |
| 20260507115805 | 93 | 139 | 2.0 | 11.0 | 0.00 | 0.00 | 0.00 | 37 | 1007.0 |
| 20260507115702 | 93 | 107 | 2.0 | 11.0 | 0.00 | 0.00 | 0.00 | 37 | 1007.0 |
| 20260507115602 | 93 | 87 | 3.0 | 11.0 | 0.00 | 0.00 | 0.00 | 36 | 1007.0 |
| 20260507115506 | 93 | 86 | 2.0 | 11.0 | 0.00 | 0.00 | 0.00 | 36 | 1007.0 |
| 20260507115402 | 93 | 14 | 1.0 | 11.0 | 0.00 | 0.00 | 0.00 | 36 | 1007.0 |
| 20260507115306 | 93 | 81 | 1.0 | 11.0 | 0.00 | 0.00 | 0.00 | 36 | 1006.9 |
| 20260507115204 | 93 | 84 | 4.0 | 11.0 | 0.00 | 0.00 | 0.00 | 37 | 1006.9 |
| 20260507115102 | 93 | 117 | 7.0 | 11.0 | 0.00 | 0.00 | 0.00 | 36 | 1006.9 |
| 20260507115006 | 94 | 105 | 7.0 | 11.0 | 0.00 | 0.00 | 0.00 | 36 | 1006.9 |
| 20260507114903 | 94 | 136 | 4.0 | 10.0 | 0.00 | 0.00 | 0.00 | 36 | 1007.0 |
| 20260507114806 | 94 | 171 | 3.0 | 7.0 | 0.00 | 0.00 | 0.00 | 37 | 1006.9 |
| 20260507114706 | 94 | 232 | 2.0 | 4.0 | 0.00 | 0.00 | 0.00 | 37 | 1006.9 |
| 20260507114603 | 94 | 215 | 2.0 | 4.0 | 0.00 | 0.00 | 0.00 | 37 | 1007.0 |
| 20260507114505 | 94 | 262 | 1.0 | 4.0 | 0.00 | 0.00 | 0.00 | 37 | 1007.0 |
| 20260507114403 | 94 | 262 | 1.0 | 4.0 | 0.00 | 0.00 | 0.00 | 37 | 1006.9 |
| 20260507114303 | 94 | 283 | 1.0 | 4.0 | 0.00 | 0.00 | 0.00 | 37 | 1006.9 |
| 20260507114204 | 94 | 242 | 2.0 | 4.0 | 0.00 | 0.00 | 0.00 | 36 | 1006.9 |
| 20260507114103 | 94 | 256 | 2.0 | 4.0 | 0.00 | 0.00 | 0.00 | 37 | 1006.9 |
| 20260507114006 | 94 | 250 | 2.0 | 5.0 | 0.00 | 0.00 | 0.00 | 36 | 1006.9 |
| 20260507113803 | 94 | 252 | 0.0 | 5.0 | 0.00 | 0.00 | 0.00 | 36 | 1006.9 |
| 20260507113703 | 94 | 255 | 1.0 | 5.0 | 0.00 | 0.00 | 0.00 | 36 | 1006.9 |
| 20260507113604 | 94 | 200 | 1.0 | 5.0 | 0.00 | 0.00 | 0.00 | 36 | 1006.9 |
| 20260507113504 | 94 | 235 | 1.0 | 5.0 | 0.00 | 0.00 | 0.00 | 36 | 1007.0 |
| 20260507113405 | 94 | 221 | 1.0 | 5.0 | 0.00 | 0.00 | 0.00 | 37 | 1006.9 |
| 20260507113302 | 94 | 257 | 3.0 | 5.0 | 0.00 | 0.00 | 0.00 | 36 | 1006.9 |
| 20260507113203 | 94 | 168 | 3.0 | 5.0 | 0.00 | 0.00 | 0.00 | 36 | 1006.9 |
| 20260507113104 | 94 | 200 | 3.0 | 5.0 | 0.00 | 0.00 | 0.00 | 36 | 1006.9 |
| 20260507113006 | 94 | 200 | 3.0 | 4.0 | 0.00 | 0.00 | 0.00 | 36 | 1006.9 |
| 20260507112706 | 94 | 189 | 3.0 | 4.0 | 0.00 | 0.00 | 0.00 | 36 | 1006.9 |
| 20260507112604 | 94 | 265 | 1.0 | 5.0 | 0.00 | 0.00 | 0.00 | 36 | 1007.0 |
| 20260507112505 | 94 | 298 | 1.0 | 5.0 | 0.00 | 0.00 | 0.00 | 35 | 1007.0 |
| 20260507112306 | 94 | 296 | 2.0 | 5.0 | 0.00 | 0.00 | 0.00 | 36 | 1007.0 |
| 20260507112102 | 95 | 275 | 1.0 | 7.0 | 0.00 | 0.00 | 0.00 | 36 | 1006.9 |
| 20260507112009 | 94 | 246 | 2.0 | 7.0 | 0.00 | 0.00 | 0.00 | 35 | 1006.9 |
| 20260507111902 | 95 | 300 | 3.0 | 7.0 | 0.00 | 0.00 | 0.00 | 35 | 1007.0 |
| 20260507111804 | 95 | 302 | 3.0 | 7.0 | 0.00 | 0.00 | 0.00 | 36 | 1007.0 |
| 20260507111703 | 95 | 287 | 3.0 | 7.0 | 0.00 | 0.00 | 0.00 | 36 | 1006.9 |
| 20260507111603 | 95 | 245 | 4.0 | 7.0 | 0.00 | 0.00 | 0.00 | 36 | 1006.9 |
| 20260507111506 | 95 | 234 | 2.0 | 7.0 | 0.00 | 0.00 | 0.00 | 36 | 1006.9 |
| 20260507111404 | 95 | 355 | 1.0 | 3.0 | 0.00 | 0.00 | 0.00 | 36 | 1006.9 |
| 20260507111303 | 94 | 204 | 1.0 | 3.0 | 0.00 | 0.00 | 0.00 | 36 | 1006.9 |
| 20260507111203 | 94 | 262 | 1.0 | 3.0 | 0.00 | 0.00 | 0.00 | 35 | 1006.8 |
| 20260507111105 | 94 | 304 | 1.0 | 5.0 | 0.00 | 0.00 | 0.00 | 35 | 1006.9 |
| 20260507110803 | 94 | 259 | 2.0 | 6.0 | 0.00 | 0.00 | 0.00 | 36 | 1006.8 |
| 20260507110702 | 94 | 263 | 2.0 | 6.0 | 0.00 | 0.00 | 0.00 | 35 | 1006.8 |
| 20260507110402 | 95 | 254 | 3.0 | 6.0 | 0.00 | 0.00 | 0.00 | 36 | 1006.9 |
| 20260507110302 | 95 | 252 | 3.0 | 6.0 | 0.00 | 0.00 | 0.00 | 36 | 1006.9 |
| 20260507110202 | 95 | 281 | 3.0 | 7.0 | 0.00 | 0.00 | 0.00 | 35 | 1006.9 |
| 20260507110006 | 95 | 304 | 3.0 | 7.0 | 0.00 | 0.00 | 0.00 | 35 | 1007.0 |
| 20260507105903 | 95 | 288 | 4.0 | 7.0 | 0.00 | 0.00 | 0.00 | 35 | 1006.8 |
| 20260507105805 | 95 | 285 | 3.0 | 7.0 | 0.00 | 0.00 | 0.00 | 35 | 1006.9 |
| 20260507105703 | 95 | 279 | 2.0 | 6.0 | 0.00 | 0.00 | 0.00 | 36 | 1006.9 |
| 20260507105603 | 95 | 254 | 2.0 | 6.0 | 0.00 | 0.00 | 0.00 | 36 | 1006.9 |
| 20260507105505 | 95 | 233 | 2.0 | 6.0 | 0.00 | 0.00 | 0.00 | 36 | 1006.8 |
| 20260507105402 | 95 | 205 | 3.0 | 6.0 | 0.00 | 0.00 | 0.00 | 35 | 1006.8 |
| 20260507105306 | 95 | 245 | 3.0 | 6.0 | 0.00 | 0.00 | 0.00 | 35 | 1006.9 |
| 20260507105205 | 95 | 200 | 2.0 | 6.0 | 0.00 | 0.00 | 0.00 | 36 | 1006.9 |
| 20260507105103 | 95 | 249 | 1.0 | 6.0 | 0.00 | 0.00 | 0.00 | 35 | 1006.9 |
| 20260507105006 | 95 | 350 | 1.0 | 6.0 | 0.00 | 0.00 | 0.00 | 35 | 1007.0 |
| 20260507104803 | 95 | 297 | 3.0 | 6.0 | 0.00 | 0.00 | 0.00 | 35 | 1007.0 |
| 20260507104605 | 95 | 276 | 2.0 | 6.0 | 0.00 | 0.00 | 0.00 | 35 | 1007.0 |
| 20260507104507 | 95 | 259 | 2.0 | 4.0 | 0.00 | 0.00 | 0.00 | 36 | 1007.0 |
| 20260507104404 | 95 | 259 | 2.0 | 4.0 | 0.00 | 0.00 | 0.00 | 35 | 1007.0 |
| 20260507104303 | 95 | 197 | 1.0 | 4.0 | 0.00 | 0.00 | 0.00 | 35 | 1006.9 |
| 20260507104202 | 95 | 213 | 1.0 | 3.0 | 0.00 | 0.00 | 0.00 | 36 | 1007.0 |
| 20260507104105 | 95 | 220 | 1.0 | 5.0 | 0.00 | 0.00 | 0.00 | 36 | 1006.9 |
| 20260507104015 | 95 | 209 | 0.0 | 5.0 | 0.00 | 0.00 | 0.00 | 36 | 1006.9 |
| 20260507103902 | 95 | 250 | 1.0 | 5.0 | 0.00 | 0.00 | 0.00 | 36 | 1006.9 |
| 20260507103806 | 95 | 247 | 1.0 | 5.0 | 0.00 | 0.00 | 0.00 | 36 | 1006.9 |
| 20260507103603 | 94 | 79 | 2.0 | 5.0 | 0.00 | 0.00 | 0.00 | 35 | 1007.0 |
| 20260507103507 | 94 | 30 | 2.0 | 5.0 | 0.00 | 0.00 | 0.00 | 35 | 1006.9 |
| 20260507103402 | 94 | 35 | 3.0 | 5.0 | 0.00 | 0.00 | 0.00 | 34 | 1007.1 |
| 20260507103302 | 94 | 39 | 2.0 | 5.0 | 0.00 | 0.00 | 0.00 | 34 | 1007.0 |
| 20260507103203 | 94 | 50 | 2.0 | 4.0 | 0.00 | 0.00 | 0.00 | 35 | 1007.0 |
| 20260507103102 | 94 | 50 | 1.0 | 6.0 | 0.00 | 0.00 | 0.00 | 35 | 1007.1 |
| 20260507103006 | 94 | 51 | 1.0 | 6.0 | 0.00 | 0.00 | 0.00 | 35 | 1007.1 |
| 20260507102805 | 94 | 50 | 2.0 | 6.0 | 0.00 | 0.00 | 0.00 | 34 | 1007.2 |
| 20260507102702 | 94 | 51 | 2.0 | 6.0 | 0.00 | 0.00 | 0.00 | 34 | 1007.1 |
| 20260507102602 | 94 | 50 | 2.0 | 6.0 | 0.00 | 0.00 | 0.00 | 34 | 1007.1 |
| 20260507102402 | 95 | 75 | 2.0 | 8.0 | 0.00 | 0.00 | 0.00 | 34 | 1007.2 |
| 20260507102202 | 94 | 50 | 2.0 | 8.0 | 0.00 | 0.00 | 0.00 | 35 | 1007.2 |
| 20260507102008 | 94 | 151 | 2.0 | 8.0 | 0.00 | 0.00 | 0.00 | 35 | 1007.2 |
| 20260507101802 | 94 | 58 | 3.0 | 8.0 | 0.00 | 0.00 | 0.00 | 35 | 1007.2 |
| 20260507101704 | 94 | 68 | 3.0 | 8.0 | 0.00 | 0.00 | 0.00 | 35 | 1007.1 |
| 20260507101504 | 95 | 57 | 3.0 | 6.0 | 0.00 | 0.00 | 0.00 | 35 | 1007.1 |
| 20260507101403 | 95 | 268 | 3.0 | 4.0 | 0.00 | 0.00 | 0.00 | 36 | 1007.2 |
| 20260507101304 | 94 | 246 | 2.0 | 4.0 | 0.00 | 0.00 | 0.00 | 36 | 1007.2 |
| 20260507101104 | 94 | 332 | 1.0 | 4.0 | 0.00 | 0.00 | 0.00 | 35 | 1007.3 |
| 20260507101005 | 94 | 192 | 2.0 | 6.0 | 0.00 | 0.00 | 0.00 | 36 | 1007.3 |
| 20260507100903 | 94 | 208 | 2.0 | 6.0 | 0.00 | 0.00 | 0.00 | 36 | 1007.2 |
| 20260507100704 | 94 | 177 | 1.0 | 6.0 | 0.00 | 0.00 | 0.00 | 35 | 1007.3 |
| 20260507100604 | 94 | 172 | 1.0 | 6.0 | 0.00 | 0.00 | 0.00 | 36 | 1007.3 |
| 20260507100507 | 94 | 178 | 1.0 | 6.0 | 0.00 | 0.00 | 0.00 | 37 | 1007.3 |
| 20260507100404 | 94 | 256 | 2.0 | 6.0 | 0.00 | 0.00 | 0.00 | 36 | 1007.3 |
| 20260507100203 | 94 | 248 | 4.0 | 6.0 | 0.00 | 0.00 | 0.00 | 36 | 1007.3 |
| 20260507100010 | 94 | 209 | 3.0 | 7.0 | 0.00 | 0.00 | 0.00 | 36 | 1007.2 |
| 20260507095903 | 94 | 182 | 2.0 | 7.0 | 0.00 | 0.00 | 0.00 | 36 | 1007.3 |
| 20260507095804 | 94 | 273 | 2.0 | 7.0 | 0.00 | 0.00 | 0.00 | 36 | 1007.3 |
| 20260507095602 | 94 | 265 | 2.0 | 7.0 | 0.00 | 0.00 | 0.00 | 36 | 1007.3 |
| 20260507095508 | 94 | 241 | 2.0 | 7.0 | 0.00 | 0.00 | 0.00 | 35 | 1007.3 |
| 20260507095402 | 94 | 198 | 3.0 | 7.0 | 0.00 | 0.00 | 0.00 | 34 | 1007.3 |
| 20260507095202 | 94 | 156 | 3.0 | 9.0 | 0.00 | 0.00 | 0.00 | 36 | 1007.3 |
| 20260507095103 | 94 | 205 | 2.0 | 9.0 | 0.00 | 0.00 | 0.00 | 36 | 1007.3 |
| 20260507095008 | 94 | 275 | 2.0 | 9.0 | 0.00 | 0.00 | 0.00 | 36 | 1007.3 |
| 20260507094902 | 94 | 267 | 3.0 | 9.0 | 0.00 | 0.00 | 0.00 | 35 | 1007.3 |
| 20260507094802 | 94 | 105 | 3.0 | 9.0 | 0.00 | 0.00 | 0.00 | 35 | 1007.3 |
| 20260507094702 | 94 | 188 | 2.0 | 9.0 | 0.00 | 0.00 | 0.00 | 36 | 1007.4 |
| 20260507094602 | 94 | 207 | 3.0 | 9.0 | 0.00 | 0.00 | 0.00 | 35 | 1007.3 |
| 20260507094402 | 94 | 178 | 3.0 | 8.0 | 0.00 | 0.00 | 0.00 | 36 | 1007.3 |
| 20260507094305 | 94 | 172 | 3.0 | 6.0 | 0.00 | 0.00 | 0.00 | 36 | 1007.3 |
| 20260507094203 | 94 | 181 | 2.0 | 6.0 | 0.00 | 0.00 | 0.00 | 35 | 1007.4 |
| 20260507093902 | 94 | 129 | 2.0 | 6.0 | 0.00 | 0.00 | 0.00 | 36 | 1007.3 |
| 20260507093802 | 94 | 156 | 4.0 | 6.0 | 0.00 | 0.00 | 0.00 | 35 | 1007.4 |
| 20260507093703 | 94 | 163 | 4.0 | 7.0 | 0.00 | 0.00 | 0.00 | 35 | 1007.4 |
| 20260507093404 | 94 | 138 | 2.0 | 7.0 | 0.00 | 0.00 | 0.00 | 36 | 1007.3 |
| 20260507093302 | 94 | 130 | 2.0 | 7.0 | 0.00 | 0.00 | 0.00 | 35 | 1007.4 |
| 20260507093205 | 94 | 96 | 4.0 | 7.0 | 0.00 | 0.00 | 0.00 | 35 | 1007.4 |
| 20260507093103 | 94 | 134 | 4.0 | 7.0 | 0.00 | 0.00 | 0.00 | 35 | 1007.4 |
| 20260507092903 | 94 | 129 | 3.0 | 7.0 | 0.00 | 0.00 | 0.00 | 35 | 1007.5 |
| 20260507092703 | 94 | 185 | 2.0 | 7.0 | 0.00 | 0.00 | 0.00 | 35 | 1007.4 |
| 20260507092504 | 94 | 224 | 3.0 | 9.0 | 0.00 | 0.00 | 0.00 | 35 | 1007.5 |
| 20260507092405 | 94 | 171 | 2.0 | 9.0 | 0.00 | 0.00 | 0.00 | 35 | 1007.5 |
| 20260507092302 | 95 | 218 | 2.0 | 9.0 | 0.00 | 0.00 | 0.00 | 35 | 1007.5 |
| 20260507092203 | 95 | 238 | 3.0 | 9.0 | 0.00 | 0.00 | 0.00 | 35 | 1007.5 |
| 20260507092104 | 95 | 207 | 4.0 | 9.0 | 0.00 | 0.00 | 0.00 | 35 | 1007.4 |
| 20260507091905 | 95 | 221 | 3.0 | 9.0 | 0.00 | 0.00 | 0.00 | 35 | 1007.5 |
| 20260507091705 | 95 | 136 | 3.0 | 9.0 | 0.00 | 0.00 | 0.00 | 35 | 1007.5 |
| 20260507091602 | 94 | 55 | 1.0 | 8.0 | 0.00 | 0.00 | 0.00 | 35 | 1007.5 |
| 20260507091506 | 94 | 145 | 1.0 | 8.0 | 0.00 | 0.00 | 0.00 | 35 | 1007.5 |
| 20260507091406 | 94 | 144 | 3.0 | 8.0 | 0.00 | 0.00 | 0.00 | 35 | 1007.5 |
| 20260507091303 | 94 | 126 | 4.0 | 8.0 | 0.00 | 0.00 | 0.00 | 35 | 1007.5 |
| 20260507091203 | 94 | 138 | 3.0 | 8.0 | 0.00 | 0.00 | 0.00 | 35 | 1007.6 |
| 20260507091008 | 94 | 281 | 0.0 | 6.0 | 0.00 | 0.00 | 0.00 | 35 | 1007.6 |
| 20260507090905 | 94 | 240 | 0.0 | 6.0 | 0.00 | 0.00 | 0.00 | 35 | 1007.6 |
| 20260507090807 | 94 | 240 | 0.0 | 6.0 | 0.00 | 0.00 | 0.00 | 35 | 1007.6 |
| 20260507090704 | 94 | 240 | 1.0 | 6.0 | 0.00 | 0.00 | 0.00 | 35 | 1007.7 |
| 20260507090604 | 94 | 163 | 3.0 | 6.0 | 0.00 | 0.00 | 0.00 | 34 | 1007.7 |
| 20260507090507 | 94 | 142 | 2.0 | 6.0 | 0.00 | 0.00 | 0.00 | 35 | 1007.7 |
| 20260507090405 | 94 | 68 | 1.0 | 5.0 | 0.00 | 0.00 | 0.00 | 35 | 1007.7 |
| 20260507090304 | 93 | 165 | 1.0 | 4.0 | 0.00 | 0.00 | 0.00 | 36 | 1007.7 |
| 20260507090206 | 93 | 103 | 2.0 | 4.0 | 0.00 | 0.00 | 0.00 | 37 | 1007.7 |
| 20260507090103 | 93 | 150 | 2.0 | 4.0 | 0.00 | 0.00 | 0.00 | 37 | 1007.7 |
| 20260507085904 | 93 | 5 | 0.0 | 4.0 | 0.00 | 0.00 | 0.00 | 35 | 1007.7 |
| 20260507085803 | 93 | 360 | 1.0 | 4.0 | 0.00 | 0.00 | 0.00 | 35 | 1007.8 |
| 20260507085703 | 93 | 360 | 2.0 | 7.0 | 0.00 | 0.00 | 0.00 | 35 | 1007.8 |
| 20260507085608 | 93 | 57 | 2.0 | 7.0 | 0.00 | 0.00 | 0.00 | 35 | 1007.8 |
| 20260507085507 | 93 | 70 | 1.0 | 9.0 | 0.00 | 0.00 | 0.00 | 36 | 1007.8 |
| 20260507085305 | 92 | 69 | 2.0 | 11.0 | 0.00 | 0.00 | 0.00 | 35 | 1007.9 |
| 20260507085208 | 92 | 73 | 2.0 | 11.0 | 0.00 | 0.00 | 0.00 | 35 | 1007.9 |
| 20260507085105 | 92 | 69 | 2.0 | 11.0 | 0.00 | 0.00 | 0.00 | 35 | 1007.9 |
| 20260507085016 | 93 | 103 | 4.0 | 11.0 | 0.00 | 0.00 | 0.00 | 35 | 1008.0 |
| 20260507084803 | 93 | 124 | 5.0 | 11.0 | 0.00 | 0.00 | 0.00 | 35 | 1008.0 |
| 20260507084703 | 93 | 129 | 8.0 | 11.0 | 0.00 | 0.00 | 0.00 | 35 | 1008.0 |
| 20260507084603 | 93 | 130 | 9.0 | 11.0 | 0.00 | 0.00 | 0.00 | 35 | 1008.0 |
| 20260507084506 | 93 | 137 | 8.0 | 11.0 | 0.00 | 0.00 | 0.00 | 36 | 1008.0 |
| 20260507084359 | 93 | 142 | 5.0 | 10.0 | 0.00 | 0.00 | 0.00 | 36 | 1008.1 |
| 20260507084303 | 93 | 153 | 3.0 | 8.0 | 0.00 | 0.00 | 0.00 | 36 | 1008.1 |
| 20260507084105 | 93 | 169 | 3.0 | 8.0 | 0.00 | 0.00 | 0.00 | 36 | 1008.0 |
| 20260507084009 | 93 | 171 | 1.0 | 8.0 | 0.00 | 0.00 | 0.00 | 37 | 1008.0 |
| 20260507083803 | 93 | 220 | 2.0 | 8.0 | 0.00 | 0.00 | 0.00 | 36 | 1008.1 |
| 20260507083705 | 92 | 192 | 2.0 | 8.0 | 0.00 | 0.00 | 0.00 | 36 | 1008.1 |
| 20260507083602 | 92 | 220 | 4.0 | 8.0 | 0.00 | 0.00 | 0.00 | 37 | 1008.0 |
| 20260507083505 | 92 | 230 | 5.0 | 8.0 | 0.00 | 0.00 | 0.00 | 36 | 1008.1 |
| 20260507083402 | 92 | 180 | 6.0 | 9.0 | 0.00 | 0.00 | 0.00 | 37 | 1008.1 |
| 20260507083302 | 92 | 173 | 6.0 | 10.0 | 0.00 | 0.00 | 0.00 | 36 | 1008.1 |
| 20260507083202 | 92 | 175 | 6.0 | 9.0 | 0.00 | 0.00 | 0.00 | 36 | 1008.1 |
| 20260507083103 | 92 | 126 | 5.0 | 10.0 | 0.00 | 0.00 | 0.00 | 36 | 1008.0 |
| 20260507082903 | 92 | 159 | 3.0 | 10.0 | 0.00 | 0.00 | 0.00 | 35 | 1008.0 |
| 20260507082805 | 92 | 102 | 3.0 | 10.0 | 0.00 | 0.00 | 0.00 | 35 | 1008.1 |
| 20260507082702 | 92 | 112 | 2.0 | 11.0 | 0.00 | 0.00 | 0.00 | 35 | 1008.0 |
| 20260507082604 | 92 | 150 | 2.0 | 11.0 | 0.00 | 0.00 | 0.00 | 35 | 1008.1 |
| 20260507082504 | 92 | 112 | 5.0 | 11.0 | 0.00 | 0.00 | 0.00 | 35 | 1008.1 |
| 20260507082403 | 92 | 100 | 7.0 | 11.0 | 0.00 | 0.00 | 0.00 | 35 | 1008.1 |
| 20260507082204 | 92 | 109 | 3.0 | 11.0 | 0.00 | 0.00 | 0.00 | 35 | 1008.1 |
| 20260507082007 | 92 | 69 | 6.0 | 11.0 | 0.00 | 0.00 | 0.00 | 36 | 1008.3 |
| 20260507081906 | 92 | 132 | 6.0 | 11.0 | 0.00 | 0.00 | 0.00 | 35 | 1008.3 |
| 20260507081807 | 93 | 83 | 5.0 | 8.0 | 0.00 | 0.00 | 0.00 | 36 | 1008.2 |
| 20260507081605 | 93 | 187 | 4.0 | 10.0 | 0.00 | 0.00 | 0.00 | 36 | 1008.2 |
| 20260507081506 | 93 | 157 | 3.0 | 10.0 | 0.00 | 0.00 | 0.00 | 36 | 1008.3 |
| 20260507081403 | 93 | 191 | 3.0 | 10.0 | 0.00 | 0.00 | 0.00 | 36 | 1008.3 |
| 20260507081303 | 93 | 152 | 5.0 | 10.0 | 0.00 | 0.00 | 0.00 | 36 | 1008.4 |
| 20260507081202 | 92 | 162 | 6.0 | 10.0 | 0.00 | 0.00 | 0.00 | 36 | 1008.3 |
| 20260507080902 | 92 | 171 | 7.0 | 12.0 | 0.00 | 0.00 | 0.00 | 36 | 1008.4 |
| 20260507080805 | 92 | 146 | 6.0 | 12.0 | 0.00 | 0.00 | 0.00 | 36 | 1008.4 |
| 20260507080704 | 92 | 170 | 5.0 | 11.0 | 0.00 | 0.00 | 0.00 | 36 | 1008.4 |
| 20260507080604 | 92 | 154 | 6.0 | 11.0 | 0.00 | 0.00 | 0.00 | 36 | 1008.4 |
| 20260507080508 | 92 | 130 | 5.0 | 11.0 | 0.00 | 0.00 | 0.00 | 36 | 1008.4 |
| 20260507080305 | 92 | 176 | 4.0 | 11.0 | 0.00 | 0.00 | 0.00 | 36 | 1008.4 |
| 20260507080200 | 92 | 134 | 5.0 | 11.0 | 0.00 | 0.00 | 0.00 | 36 | 1008.4 |
| 20260507080103 | 92 | 196 | 6.0 | 11.0 | 0.00 | 0.00 | 0.00 | 36 | 1008.4 |
| 20260507075905 | 92 | 202 | 6.0 | 11.0 | 0.00 | 0.00 | 0.00 | 37 | 1008.4 |
| 20260507075802 | 92 | 178 | 6.0 | 11.0 | 0.00 | 0.00 | 0.00 | 36 | 1008.4 |
| 20260507075704 | 92 | 123 | 4.0 | 11.0 | 0.00 | 0.00 | 0.00 | 37 | 1008.4 |
| 20260507075605 | 92 | 158 | 5.0 | 11.0 | 0.00 | 0.00 | 0.00 | 36 | 1008.4 |
| 20260507075505 | 92 | 136 | 7.0 | 11.0 | 0.00 | 0.00 | 0.00 | 36 | 1008.5 |
| 20260507075402 | 92 | 130 | 7.0 | 11.0 | 0.00 | 0.00 | 0.00 | 36 | 1008.4 |
| 20260507075307 | 92 | 101 | 7.0 | 11.0 | 0.00 | 0.00 | 0.00 | 35 | 1008.5 |
| 20260507075205 | 92 | 80 | 6.0 | 11.0 | 0.00 | 0.00 | 0.00 | 35 | 1008.5 |
| 20260507075103 | 92 | 116 | 5.0 | 11.0 | 0.00 | 0.00 | 0.00 | 36 | 1008.4 |
| 20260507075006 | 92 | 182 | 4.0 | 11.0 | 0.00 | 0.00 | 0.00 | 36 | 1008.4 |
| 20260507074804 | 92 | 121 | 4.0 | 11.0 | 0.00 | 0.00 | 0.00 | 36 | 1008.4 |
| 20260507074703 | 92 | 102 | 6.0 | 11.0 | 0.00 | 0.00 | 0.00 | 36 | 1008.5 |
| 20260507074603 | 92 | 118 | 6.0 | 11.0 | 0.00 | 0.00 | 0.00 | 36 | 1008.5 |
| 20260507074506 | 92 | 153 | 6.0 | 11.0 | 0.00 | 0.00 | 0.00 | 36 | 1008.5 |
| 20260507074407 | 92 | 187 | 6.0 | 11.0 | 0.00 | 0.00 | 0.00 | 37 | 1008.5 |
| 20260507074302 | 92 | 124 | 5.0 | 11.0 | 0.00 | 0.00 | 0.00 | 36 | 1008.5 |
| 20260507074104 | 91 | 11 | 3.0 | 11.0 | 0.00 | 0.00 | 0.00 | 36 | 1008.5 |
| 20260507074012 | 91 | 171 | 4.0 | 11.0 | 0.00 | 0.00 | 0.00 | 36 | 1008.5 |
| 20260507073904 | 91 | 157 | 6.0 | 11.0 | 0.00 | 0.00 | 0.00 | 36 | 1008.5 |
| 20260507073805 | 91 | 175 | 8.0 | 12.0 | 0.00 | 0.00 | 0.00 | 36 | 1008.5 |
| 20260507073703 | 91 | 129 | 7.0 | 12.0 | 0.00 | 0.00 | 0.00 | 36 | 1008.5 |
| 20260507073604 | 91 | 94 | 4.0 | 15.0 | 0.00 | 0.00 | 0.00 | 36 | 1008.5 |
| 20260507073506 | 91 | 81 | 4.0 | 15.0 | 0.00 | 0.00 | 0.00 | 37 | 1008.5 |
| 20260507073407 | 91 | 111 | 5.0 | 15.0 | 0.00 | 0.00 | 0.00 | 36 | 1008.5 |
| 20260507073304 | 91 | 73 | 5.0 | 15.0 | 0.00 | 0.00 | 0.00 | 36 | 1008.4 |
| 20260507073203 | 91 | 76 | 4.0 | 15.0 | 0.00 | 0.00 | 0.00 | 36 | 1008.6 |
| 20260507073104 | 91 | 142 | 3.0 | 15.0 | 0.00 | 0.00 | 0.00 | 36 | 1008.6 |
| 20260507072906 | 91 | 75 | 9.0 | 15.0 | 0.00 | 0.00 | 0.00 | 36 | 1008.5 |
| 20260507072703 | 91 | 145 | 4.0 | 12.0 | 0.00 | 0.00 | 0.00 | 36 | 1008.4 |
| 20260507072403 | 90 | 99 | 5.0 | 12.0 | 0.00 | 0.00 | 0.00 | 36 | 1008.5 |
| 20260507072306 | 91 | 147 | 7.0 | 12.0 | 0.00 | 0.00 | 0.00 | 36 | 1008.6 |
| 20260507072204 | 90 | 174 | 8.0 | 13.0 | 0.00 | 0.00 | 0.00 | 36 | 1008.5 |
| 20260507072102 | 90 | 130 | 7.0 | 13.0 | 0.00 | 0.00 | 0.00 | 36 | 1008.6 |
| 20260507072006 | 90 | 148 | 6.0 | 13.0 | 0.00 | 0.00 | 0.00 | 36 | 1008.6 |
| 20260507071803 | 90 | 108 | 4.0 | 13.0 | 0.00 | 0.00 | 0.00 | 36 | 1008.6 |
| 20260507071703 | 90 | 105 | 3.0 | 13.0 | 0.00 | 0.00 | 0.00 | 36 | 1008.6 |
| 20260507071505 | 90 | 103 | 7.0 | 13.0 | 0.00 | 0.00 | 0.00 | 36 | 1008.6 |
| 20260507071403 | 90 | 71 | 7.0 | 13.0 | 0.00 | 0.00 | 0.00 | 36 | 1008.5 |
| 20260507071304 | 90 | 70 | 6.0 | 10.0 | 0.00 | 0.00 | 0.00 | 36 | 1008.6 |
| 20260507071105 | 90 | 148 | 7.0 | 10.0 | 0.00 | 0.00 | 0.00 | 36 | 1008.7 |
| 20260507071008 | 90 | 172 | 6.0 | 11.0 | 0.00 | 0.00 | 0.00 | 37 | 1008.6 |
| 20260507070904 | 90 | 166 | 3.0 | 9.0 | 0.00 | 0.00 | 0.00 | 38 | 1008.7 |
| 20260507070802 | 90 | 198 | 3.0 | 12.0 | 0.00 | 0.00 | 0.00 | 37 | 1008.6 |
| 20260507070705 | 90 | 103 | 3.0 | 12.0 | 0.00 | 0.00 | 0.00 | 37 | 1008.6 |
| 20260507070506 | 90 | 108 | 4.0 | 13.0 | 0.00 | 0.00 | 0.00 | 37 | 1008.7 |
| 20260507070402 | 90 | 147 | 4.0 | 13.0 | 0.00 | 0.00 | 0.00 | 36 | 1008.8 |
| 20260507070303 | 90 | 80 | 3.0 | 13.0 | 0.00 | 0.00 | 0.00 | 36 | 1008.7 |
| 20260507070202 | 90 | 98 | 6.0 | 13.0 | 0.00 | 0.00 | 0.00 | 36 | 1008.8 |
| 20260507070012 | 90 | 126 | 7.0 | 13.0 | 0.00 | 0.00 | 0.00 | 37 | 1008.8 |
| 20260507065903 | 90 | 115 | 5.0 | 13.0 | 0.00 | 0.00 | 0.00 | 37 | 1008.8 |
| 20260507065803 | 90 | 95 | 6.0 | 13.0 | 0.00 | 0.00 | 0.00 | 37 | 1008.8 |
| 20260507065704 | 90 | 95 | 7.0 | 13.0 | 0.00 | 0.00 | 0.00 | 37 | 1008.8 |
| 20260507065403 | 89 | 111 | 6.0 | 11.0 | 0.00 | 0.00 | 0.00 | 36 | 1008.8 |
| 20260507065305 | 90 | 116 | 5.0 | 12.0 | 0.00 | 0.00 | 0.00 | 36 | 1008.8 |
| 20260507065203 | 89 | 96 | 5.0 | 12.0 | 0.00 | 0.00 | 0.00 | 37 | 1008.8 |
| 20260507065103 | 89 | 144 | 4.0 | 12.0 | 0.00 | 0.00 | 0.00 | 37 | 1008.9 |
| 20260507064903 | 89 | 89 | 7.0 | 12.0 | 0.00 | 0.00 | 0.00 | 37 | 1008.9 |
| 20260507064803 | 90 | 106 | 6.0 | 12.0 | 0.00 | 0.00 | 0.00 | 36 | 1008.9 |
| 20260507064703 | 90 | 107 | 7.0 | 12.0 | 0.00 | 0.00 | 0.00 | 36 | 1008.9 |
| 20260507064507 | 90 | 91 | 7.0 | 12.0 | 0.00 | 0.00 | 0.00 | 37 | 1008.9 |
| 20260507064403 | 90 | 72 | 4.0 | 9.0 | 0.00 | 0.00 | 0.00 | 37 | 1008.8 |
| 20260507064305 | 90 | 72 | 2.0 | 8.0 | 0.00 | 0.00 | 0.00 | 37 | 1008.8 |
| 20260507064204 | 89 | 97 | 3.0 | 8.0 | 0.00 | 0.00 | 0.00 | 37 | 1008.8 |
| 20260507064104 | 89 | 89 | 4.0 | 8.0 | 0.00 | 0.00 | 0.00 | 37 | 1008.9 |
| 20260507064007 | 89 | 88 | 3.0 | 11.0 | 0.00 | 0.00 | 0.00 | 37 | 1008.9 |
| 20260507063905 | 89 | 64 | 3.0 | 11.0 | 0.00 | 0.00 | 0.00 | 38 | 1008.9 |
| 20260507063804 | 89 | 79 | 5.0 | 11.0 | 0.00 | 0.00 | 0.00 | 38 | 1008.9 |
| 20260507063710 | 89 | 86 | 4.0 | 11.0 | 0.00 | 0.00 | 0.00 | 37 | 1008.9 |
| 20260507063604 | 89 | 101 | 3.0 | 11.0 | 0.00 | 0.00 | 0.00 | 37 | 1008.9 |
| 20260507063504 | 89 | 57 | 3.0 | 11.0 | 0.00 | 0.00 | 0.00 | 37 | 1008.9 |
| 20260507063404 | 89 | 22 | 3.0 | 11.0 | 0.00 | 0.00 | 0.00 | 36 | 1008.9 |
| 20260507063204 | 89 | 71 | 6.0 | 11.0 | 0.00 | 0.00 | 0.00 | 36 | 1008.9 |
| 20260507063100 | 89 | 79 | 6.0 | 10.0 | 0.00 | 0.00 | 0.00 | 36 | 1008.9 |
| 20260507063006 | 89 | 147 | 6.0 | 10.0 | 0.00 | 0.00 | 0.00 | 37 | 1009.0 |
| 20260507062902 | 89 | 112 | 6.0 | 11.0 | 0.00 | 0.00 | 0.00 | 37 | 1008.9 |
| 20260507062804 | 89 | 94 | 5.0 | 11.0 | 0.00 | 0.00 | 0.00 | 37 | 1008.9 |
| 20260507062702 | 89 | 190 | 5.0 | 11.0 | 0.00 | 0.00 | 0.00 | 37 | 1009.0 |
| 20260507062605 | 89 | 111 | 5.0 | 11.0 | 0.00 | 0.00 | 0.00 | 37 | 1009.1 |
| 20260507062505 | 89 | 115 | 5.0 | 11.0 | 0.00 | 0.00 | 0.00 | 36 | 1009.0 |
| 20260507062405 | 89 | 73 | 6.0 | 11.0 | 0.00 | 0.00 | 0.00 | 37 | 1009.1 |
| 20260507062305 | 89 | 75 | 5.0 | 11.0 | 0.00 | 0.00 | 0.00 | 37 | 1009.0 |
| 20260507062203 | 88 | 111 | 5.0 | 11.0 | 0.00 | 0.00 | 0.00 | 37 | 1009.1 |
| 20260507062007 | 88 | 79 | 3.0 | 11.0 | 0.00 | 0.00 | 0.00 | 37 | 1009.1 |
| 20260507061903 | 88 | 169 | 3.0 | 11.0 | 0.00 | 0.00 | 0.00 | 37 | 1009.1 |
| 20260507061803 | 88 | 96 | 5.0 | 11.0 | 0.00 | 0.00 | 0.00 | 36 | 1009.1 |
| 20260507061702 | 88 | 98 | 6.0 | 11.0 | 0.00 | 0.00 | 0.00 | 37 | 1009.2 |
| 20260507061605 | 88 | 101 | 6.0 | 11.0 | 0.00 | 0.00 | 0.00 | 37 | 1009.2 |
| 20260507061506 | 88 | 67 | 8.0 | 11.0 | 0.00 | 0.00 | 0.00 | 36 | 1009.1 |
| 20260507061403 | 89 | 103 | 7.0 | 11.0 | 0.00 | 0.00 | 0.00 | 36 | 1009.1 |
| 20260507061304 | 89 | 105 | 4.0 | 10.0 | 0.00 | 0.00 | 0.00 | 36 | 1009.2 |
| 20260507061203 | 89 | 164 | 3.0 | 9.0 | 0.00 | 0.00 | 0.00 | 36 | 1009.3 |
| 20260507061105 | 89 | 154 | 4.0 | 9.0 | 0.00 | 0.00 | 0.00 | 36 | 1009.2 |
| 20260507061006 | 88 | 188 | 3.0 | 9.0 | 0.00 | 0.00 | 0.00 | 36 | 1009.3 |
| 20260507060807 | 88 | 107 | 5.0 | 9.0 | 0.00 | 0.00 | 0.00 | 36 | 1009.2 |
| 20260507060705 | 88 | 182 | 6.0 | 9.0 | 0.00 | 0.00 | 0.00 | 36 | 1009.2 |
| 20260507060402 | 88 | 95 | 4.0 | 9.0 | 0.00 | 0.00 | 0.00 | 37 | 1009.3 |
| 20260507060301 | 88 | 141 | 5.0 | 9.0 | 0.00 | 0.00 | 0.00 | 37 | 1009.3 |
| 20260507060104 | 88 | 112 | 5.0 | 9.0 | 0.00 | 0.00 | 0.00 | 36 | 1009.3 |
| 20260507060011 | 88 | 114 | 5.0 | 9.0 | 0.00 | 0.00 | 0.00 | 37 | 1009.3 |
| 20260507055905 | 88 | 175 | 6.0 | 10.0 | 0.00 | 0.00 | 0.00 | 37 | 1009.3 |
| 20260507055803 | 88 | 174 | 5.0 | 10.0 | 0.00 | 0.00 | 0.00 | 37 | 1009.4 |
| 20260507055704 | 88 | 148 | 3.0 | 10.0 | 0.00 | 0.00 | 0.00 | 37 | 1009.4 |
| 20260507055602 | 88 | 151 | 3.0 | 10.0 | 0.00 | 0.00 | 0.00 | 38 | 1009.3 |
| 20260507055505 | 88 | 184 | 5.0 | 11.0 | 0.00 | 0.00 | 0.00 | 37 | 1009.3 |
| 20260507055404 | 88 | 113 | 5.0 | 11.0 | 0.00 | 0.00 | 0.00 | 37 | 1009.3 |
| 20260507055305 | 88 | 156 | 5.0 | 11.0 | 0.00 | 0.00 | 0.00 | 37 | 1009.3 |
| 20260507055203 | 87 | 204 | 7.0 | 11.0 | 0.00 | 0.00 | 0.00 | 37 | 1009.3 |
| 20260507055006 | 87 | 162 | 7.0 | 11.0 | 0.00 | 0.00 | 0.00 | 37 | 1009.2 |
| 20260507054904 | 87 | 140 | 6.0 | 11.0 | 0.00 | 0.00 | 0.00 | 38 | 1009.3 |
| 20260507054805 | 87 | 168 | 6.0 | 11.0 | 0.00 | 0.00 | 0.00 | 38 | 1009.3 |
| 20260507054704 | 87 | 148 | 6.0 | 11.0 | 0.00 | 0.00 | 0.00 | 37 | 1009.3 |
| 20260507054607 | 87 | 65 | 4.0 | 10.0 | 0.00 | 0.00 | 0.00 | 37 | 1009.3 |
| 20260507054405 | 87 | 123 | 4.0 | 10.0 | 0.00 | 0.00 | 0.00 | 37 | 1009.2 |
| 20260507054302 | 87 | 101 | 5.0 | 11.0 | 0.00 | 0.00 | 0.00 | 37 | 1009.3 |
| 20260507054203 | 87 | 63 | 6.0 | 11.0 | 0.00 | 0.00 | 0.00 | 37 | 1009.2 |
| 20260507053903 | 87 | 28 | 6.0 | 11.0 | 0.00 | 0.00 | 0.00 | 37 | 1009.2 |
| 20260507053803 | 87 | 132 | 6.0 | 11.0 | 0.00 | 0.00 | 0.00 | 37 | 1009.3 |
| 20260507053706 | 87 | 80 | 8.0 | 11.0 | 0.00 | 0.00 | 0.00 | 37 | 1009.3 |
| 20260507053604 | 87 | 100 | 8.0 | 11.0 | 0.00 | 0.00 | 0.00 | 37 | 1009.2 |
| 20260507053302 | 87 | 91 | 6.0 | 10.0 | 0.00 | 0.00 | 0.00 | 38 | 1009.3 |
| 20260507053200 | 87 | 106 | 5.0 | 11.0 | 0.00 | 0.00 | 0.00 | 38 | 1009.2 |
| 20260507053106 | 87 | 141 | 3.0 | 11.0 | 0.00 | 0.00 | 0.00 | 38 | 1009.2 |
| 20260507053006 | 87 | 88 | 3.0 | 11.0 | 0.00 | 0.00 | 0.00 | 38 | 1009.2 |
| 20260507052903 | 86 | 50 | 3.0 | 11.0 | 0.00 | 0.00 | 0.00 | 38 | 1009.2 |
| 20260507052802 | 86 | 56 | 4.0 | 11.0 | 0.00 | 0.00 | 0.00 | 38 | 1009.4 |
| 20260507052704 | 86 | 103 | 5.0 | 11.0 | 0.00 | 0.00 | 0.00 | 38 | 1009.3 |
| 20260507052604 | 86 | 106 | 7.0 | 11.0 | 0.00 | 0.00 | 0.00 | 38 | 1009.3 |
| 20260507052505 | 86 | 108 | 7.0 | 11.0 | 0.00 | 0.00 | 0.00 | 38 | 1009.4 |
| 20260507052203 | 86 | 105 | 5.0 | 10.0 | 0.00 | 0.00 | 0.00 | 38 | 1009.3 |
| 20260507052103 | 86 | 76 | 7.0 | 10.0 | 0.00 | 0.00 | 0.00 | 38 | 1009.3 |
| 20260507052005 | 87 | 88 | 8.0 | 10.0 | 0.00 | 0.00 | 0.00 | 38 | 1009.3 |
| 20260507051904 | 87 | 73 | 5.0 | 10.0 | 0.00 | 0.00 | 0.00 | 38 | 1009.4 |
| 20260507051703 | 87 | 136 | 3.0 | 8.0 | 0.00 | 0.00 | 0.00 | 39 | 1009.4 |
| 20260507051303 | 87 | 81 | 4.0 | 10.0 | 0.00 | 0.00 | 0.00 | 38 | 1009.4 |
| 20260507051203 | 87 | 88 | 3.0 | 10.0 | 0.00 | 0.00 | 0.00 | 39 | 1009.3 |
| 20260507051103 | 86 | 95 | 3.0 | 10.0 | 0.00 | 0.00 | 0.00 | 39 | 1009.3 |
| 20260507051008 | 86 | 81 | 4.0 | 10.0 | 0.00 | 0.00 | 0.00 | 38 | 1009.4 |
| 20260507050907 | 86 | 116 | 6.0 | 10.0 | 0.00 | 0.00 | 0.00 | 38 | 1009.2 |
| 20260507050803 | 87 | 87 | 7.0 | 10.0 | 0.00 | 0.00 | 0.00 | 38 | 1009.4 |
| 20260507050705 | 87 | 107 | 5.0 | 10.0 | 0.00 | 0.00 | 0.00 | 40 | 1009.4 |
| 20260507050604 | 86 | 127 | 4.0 | 9.0 | 0.00 | 0.00 | 0.00 | 40 | 1009.3 |
| 20260507050506 | 86 | 146 | 4.0 | 9.0 | 0.00 | 0.00 | 0.00 | 39 | 1009.3 |
| 20260507050305 | 86 | 80 | 3.0 | 9.0 | 0.00 | 0.00 | 0.00 | 39 | 1009.3 |
| 20260507050103 | 86 | 111 | 4.0 | 9.0 | 0.00 | 0.00 | 0.00 | 39 | 1009.3 |
| 20260507050008 | 86 | 141 | 4.0 | 9.0 | 0.00 | 0.00 | 0.00 | 39 | 1009.4 |
| 20260507045904 | 86 | 151 | 2.0 | 7.0 | 0.00 | 0.00 | 0.00 | 39 | 1009.4 |
| 20260507045803 | 86 | 32 | 3.0 | 7.0 | 0.00 | 0.00 | 0.00 | 40 | 1009.3 |
| 20260507045704 | 86 | 159 | 4.0 | 7.0 | 0.00 | 0.00 | 0.00 | 40 | 1009.4 |
| 20260507045403 | 86 | 116 | 2.0 | 9.0 | 0.00 | 0.00 | 0.00 | 39 | 1009.4 |
| 20260507045306 | 85 | 84 | 2.0 | 9.0 | 0.00 | 0.00 | 0.00 | 40 | 1009.3 |
| 20260507045204 | 85 | 109 | 2.0 | 9.0 | 0.00 | 0.00 | 0.00 | 41 | 1009.4 |
| 20260507045004 | 85 | 109 | 4.0 | 9.0 | 0.00 | 0.00 | 0.00 | 40 | 1009.3 |
| 20260507044803 | 85 | 136 | 6.0 | 9.0 | 0.00 | 0.00 | 0.00 | 40 | 1009.2 |
| 20260507044604 | 85 | 101 | 5.0 | 9.0 | 0.00 | 0.00 | 0.00 | 39 | 1009.3 |
| 20260507044504 | 85 | 80 | 4.0 | 9.0 | 0.00 | 0.00 | 0.00 | 39 | 1009.3 |
| 20260507044403 | 85 | 140 | 4.0 | 9.0 | 0.00 | 0.00 | 0.00 | 39 | 1009.2 |
| 20260507044203 | 85 | 147 | 5.0 | 9.0 | 0.00 | 0.00 | 0.00 | 39 | 1009.2 |
| 20260507044102 | 85 | 96 | 6.0 | 9.0 | 0.00 | 0.00 | 0.00 | 39 | 1009.3 |
| 20260507044006 | 85 | 105 | 5.0 | 9.0 | 0.00 | 0.00 | 0.00 | 39 | 1009.2 |
| 20260507043902 | 85 | 115 | 3.0 | 9.0 | 0.00 | 0.00 | 0.00 | 40 | 1009.2 |
| 20260507043802 | 85 | 31 | 4.0 | 9.0 | 0.00 | 0.00 | 0.00 | 40 | 1009.3 |
| 20260507043704 | 85 | 80 | 5.0 | 9.0 | 0.00 | 0.00 | 0.00 | 40 | 1009.2 |
| 20260507043602 | 85 | 96 | 4.0 | 9.0 | 0.00 | 0.00 | 0.00 | 41 | 1009.2 |
| 20260507043505 | 85 | 89 | 5.0 | 9.0 | 0.00 | 0.00 | 0.00 | 40 | 1009.2 |
| 20260507043403 | 85 | 80 | 5.0 | 9.0 | 0.00 | 0.00 | 0.00 | 40 | 1009.2 |
| 20260507043303 | 85 | 113 | 3.0 | 8.0 | 0.00 | 0.00 | 0.00 | 40 | 1009.2 |
| 20260507043102 | 84 | 80 | 3.0 | 9.0 | 0.00 | 0.00 | 0.00 | 40 | 1009.3 |
| 20260507043006 | 84 | 111 | 3.0 | 9.0 | 0.00 | 0.00 | 0.00 | 41 | 1009.2 |
| 20260507042901 | 84 | 165 | 2.0 | 9.0 | 0.00 | 0.00 | 0.00 | 41 | 1009.2 |
| 20260507042803 | 84 | 137 | 4.0 | 9.0 | 0.00 | 0.00 | 0.00 | 41 | 1009.1 |
| 20260507042505 | 84 | 143 | 5.0 | 9.0 | 0.00 | 0.00 | 0.00 | 41 | 1009.1 |
| 20260507042403 | 84 | 157 | 5.0 | 9.0 | 0.00 | 0.00 | 0.00 | 41 | 1009.2 |
| 20260507042306 | 84 | 113 | 4.0 | 9.0 | 0.00 | 0.00 | 0.00 | 41 | 1009.1 |
| 20260507042202 | 84 | 111 | 2.0 | 9.0 | 0.00 | 0.00 | 0.00 | 41 | 1009.2 |
| 20260507042006 | 84 | 155 | 5.0 | 10.0 | 0.00 | 0.00 | 0.00 | 41 | 1009.1 |
| 20260507041804 | 84 | 159 | 5.0 | 10.0 | 0.00 | 0.00 | 0.00 | 42 | 1009.1 |
| 20260507041703 | 84 | 179 | 4.0 | 10.0 | 0.00 | 0.00 | 0.00 | 42 | 1009.1 |
| 20260507041603 | 84 | 78 | 3.0 | 10.0 | 0.00 | 0.00 | 0.00 | 41 | 1009.1 |
| 20260507041302 | 84 | 124 | 7.0 | 10.0 | 0.00 | 0.00 | 0.00 | 41 | 1009.1 |
| 20260507041202 | 84 | 104 | 7.0 | 10.0 | 0.00 | 0.00 | 0.00 | 42 | 1009.1 |
| 20260507041103 | 84 | 127 | 7.0 | 10.0 | 0.00 | 0.00 | 0.00 | 41 | 1009.0 |
| 20260507041006 | 84 | 136 | 5.0 | 10.0 | 0.00 | 0.00 | 0.00 | 41 | 1009.1 |
| 20260507040903 | 84 | 194 | 4.0 | 10.0 | 0.00 | 0.00 | 0.00 | 41 | 1009.1 |
| 20260507040804 | 84 | 112 | 5.0 | 10.0 | 0.00 | 0.00 | 0.00 | 41 | 1009.0 |
| 20260507040704 | 84 | 144 | 6.0 | 10.0 | 0.00 | 0.00 | 0.00 | 42 | 1009.0 |
| 20260507040559 | 84 | 163 | 6.0 | 10.0 | 0.00 | 0.00 | 0.00 | 42 | 1009.0 |
| 20260507040506 | 84 | 120 | 5.0 | 9.0 | 0.00 | 0.00 | 0.00 | 42 | 1009.0 |
| 20260507040403 | 83 | 155 | 4.0 | 8.0 | 0.00 | 0.00 | 0.00 | 42 | 1009.1 |
| 20260507040303 | 83 | 172 | 3.0 | 8.0 | 0.00 | 0.00 | 0.00 | 42 | 1009.0 |
| 20260507040203 | 83 | 145 | 4.0 | 8.0 | 0.00 | 0.00 | 0.00 | 42 | 1009.0 |
| 20260507040009 | 83 | 144 | 5.0 | 8.0 | 0.00 | 0.00 | 0.00 | 42 | 1009.1 |
| 20260507035706 | 83 | 141 | 3.0 | 8.0 | 0.00 | 0.00 | 0.00 | 43 | 1009.0 |
| 20260507035604 | 83 | 159 | 3.0 | 8.0 | 0.00 | 0.00 | 0.00 | 44 | 1009.0 |
| 20260507035506 | 83 | 183 | 3.0 | 8.0 | 0.00 | 0.00 | 0.00 | 44 | 1009.0 |
| 20260507035403 | 83 | 80 | 3.0 | 8.0 | 0.00 | 0.00 | 0.00 | 45 | 1009.0 |
| 20260507035306 | 83 | 117 | 3.0 | 7.0 | 0.00 | 0.00 | 0.00 | 45 | 1009.0 |
| 20260507035203 | 83 | 117 | 4.0 | 7.0 | 0.00 | 0.00 | 0.00 | 45 | 1009.0 |
| 20260507035104 | 83 | 119 | 4.0 | 7.0 | 0.00 | 0.00 | 0.00 | 45 | 1009.0 |
| 20260507035006 | 83 | 85 | 2.0 | 7.0 | 0.00 | 0.00 | 0.00 | 46 | 1009.0 |
| 20260507034903 | 82 | 85 | 2.0 | 7.0 | 0.00 | 0.00 | 0.00 | 46 | 1009.0 |
| 20260507034703 | 82 | 111 | 4.0 | 9.0 | 0.00 | 0.00 | 0.00 | 45 | 1008.9 |
| 20260507034603 | 82 | 115 | 3.0 | 10.0 | 0.00 | 0.00 | 0.00 | 46 | 1009.0 |
| 20260507034506 | 82 | 91 | 1.0 | 10.0 | 0.00 | 0.00 | 0.00 | 46 | 1009.0 |
| 20260507034404 | 82 | 121 | 3.0 | 10.0 | 0.00 | 0.00 | 0.00 | 46 | 1008.9 |
| 20260507034303 | 82 | 140 | 4.0 | 10.0 | 0.00 | 0.00 | 0.00 | 45 | 1009.0 |
| 20260507034003 | 82 | 112 | 7.0 | 10.0 | 0.00 | 0.00 | 0.00 | 45 | 1008.9 |
| 20260507033703 | 82 | 143 | 6.0 | 9.0 | 0.00 | 0.00 | 0.00 | 45 | 1008.9 |